Time,TemperatureF,DewpointF,PressureIn,WindDirection,WindDirectionDegrees,WindSpeedMPH,WindSpeedGustMPH,Humidity,HourlyPrecipIn,Conditions,Clouds,dailyrainin,SolarRadiationWatts/m^2,SoftwareType,DateUTC
2013-07-09 00:00:00,64.3,57.7,30.10,NNE,19,0.0,0.0,79,0.00,,---,0.00,0.00,VWS V14.01,2013-07-09 07:00:00,
2013-07-09 00:01:00,64.3,57.7,30.10,NNE,19,0.0,0.0,79,0.00,,---,0.00,0.00,VWS V14.01,2013-07-09 07:01:00,
2013-07-09 00:05:00,64.2,57.6,30.10,NNE,19,0.0,0.0,79,0.00,,---,0.00,0.00,VWS V14.01,2013-07-09 07:05:00,
2013-07-09 00:06:00,64.1,57.5,30.10,NNE,19,0.0,0.0,79,0.00,,---,0.00,0.00,VWS V14.01,2013-07-09 07:06:00,
2013-07-09 00:10:00,64.0,57.4,30.10,NNE,19,0.0,1.0,79,0.00,,---,0.00,0.00,VWS V14.01,2013-07-09 07:10:00,
2013-07-09 00:11:00,64.0,57.7,30.10,NNE,19,0.0,0.0,80,0.00,,---,0.00,0.00,VWS V14.01,2013-07-09 07:11:00,
2013-07-09 00:15:00,63.9,57.6,30.11,NNE,19,0.0,0.0,80,0.00,,---,0.00,0.00,VWS V14.01,2013-07-09 07:15:00,
2013-07-09 00:16:00,63.8,57.5,30.11,NNE,19,0.0,1.0,80,0.00,,---,0.00,0.00,VWS V14.01,2013-07-09 07:16:00,
2013-07-09 00:20:00,63.7,57.4,30.11,NE,46,0.0,2.0,80,0.00,,---,0.00,0.00,VWS V14.01,2013-07-09 07:20:00,
2013-07-09 00:21:00,63.6,57.3,30.11,NE,46,0.0,0.0,80,0.00,,---,0.00,0.00,VWS V14.01,2013-07-09 07:21:00,
2013-07-09 00:25:00,63.5,57.6,30.11,NE,46,0.0,1.0,81,0.00,,---,0.00,0.00,VWS V14.01,2013-07-09 07:25:00,
2013-07-09 00:26:00,63.5,57.6,30.11,NE,46,0.0,0.0,81,0.00,,---,0.00,0.00,VWS V14.01,2013-07-09 07:26:00,
2013-07-09 00:30:00,63.4,57.8,30.10,NE,46,0.0,0.0,82,0.00,,---,0.00,0.00,VWS V14.01,2013-07-09 07:30:00,
2013-07-09 00:31:00,63.4,57.8,30.10,NE,46,0.0,1.0,82,0.00,,---,0.00,0.00,VWS V14.01,2013-07-09 07:31:00,
2013-07-09 00:35:00,63.3,57.7,30.10,NE,46,0.0,1.0,82,0.00,,---,0.00,0.00,VWS V14.01,2013-07-09 07:35:00,
2013-07-09 00:36:00,63.3,57.7,30.10,NE,46,0.0,1.0,82,0.00,,---,0.00,0.00,VWS V14.01,2013-07-09 07:36:00,
2013-07-09 00:40:00,63.3,58.1,30.10,NE,46,0.0,1.0,83,0.00,,---,0.00,0.00,VWS V14.01,2013-07-09 07:40:00,
2013-07-09 00:41:00,63.3,58.1,30.10,NE,46,0.0,0.0,83,0.00,,---,0.00,0.00,VWS V14.01,2013-07-09 07:41:00,
2013-07-09 00:45:00,63.3,58.1,30.10,NE,46,0.0,0.0,83,0.00,,---,0.00,0.00,VWS V14.01,2013-07-09 07:45:00,
2013-07-09 00:46:00,63.3,58.1,30.10,NE,46,0.0,0.0,83,0.00,,---,0.00,0.00,VWS V14.01,2013-07-09 07:46:00,
2013-07-09 00:50:00,63.3,58.4,30.10,NE,46,0.0,0.0,84,0.00,,---,0.00,0.00,VWS V14.01,2013-07-09 07:50:00,
2013-07-09 00:52:00,63.2,58.3,30.10,NE,46,0.0,0.0,84,0.00,,---,0.00,0.00,VWS V14.01,2013-07-09 07:52:00,
2013-07-09 00:55:00,63.2,58.3,30.10,NE,46,0.0,0.0,84,0.00,,---,0.00,0.00,VWS V14.01,2013-07-09 07:55:00,
2013-07-09 00:57:00,63.1,58.2,30.10,NE,47,0.0,0.0,84,0.00,,---,0.00,0.00,VWS V14.01,2013-07-09 07:57:00,
2013-07-09 01:00:00,63.0,58.4,30.10,NE,46,0.0,0.0,85,0.00,,---,0.00,0.00,VWS V14.01,2013-07-09 08:00:00,
2013-07-09 01:02:00,63.0,58.4,30.10,NE,46,0.0,0.0,85,0.00,,---,0.00,0.00,VWS V14.01,2013-07-09 08:02:00,
2013-07-09 01:05:00,63.0,58.4,30.10,NE,47,0.0,0.0,85,0.00,,---,0.00,0.00,VWS V14.01,2013-07-09 08:05:00,
2013-07-09 01:07:00,63.0,58.8,30.10,NE,46,0.0,0.0,86,0.00,,---,0.00,0.00,VWS V14.01,2013-07-09 08:07:00,
2013-07-09 01:10:00,63.0,58.8,30.10,NE,46,0.0,0.0,86,0.00,,---,0.00,0.00,VWS V14.01,2013-07-09 08:10:00,
2013-07-09 01:12:00,62.9,58.7,30.10,NE,47,0.0,1.0,86,0.00,,---,0.00,0.00,VWS V14.01,2013-07-09 08:12:00,
2013-07-09 01:15:00,62.9,58.3,30.10,NE,46,0.0,1.0,85,0.00,,---,0.00,0.00,VWS V14.01,2013-07-09 08:15:00,
2013-07-09 01:17:00,62.8,58.6,30.10,NE,47,0.0,1.0,86,0.00,,---,0.00,0.00,VWS V14.01,2013-07-09 08:17:00,
2013-07-09 01:20:00,62.8,58.6,30.10,NE,47,0.0,1.0,86,0.00,,---,0.00,0.00,VWS V14.01,2013-07-09 08:20:00,
2013-07-09 01:22:00,62.7,58.5,30.10,NE,47,0.0,1.0,86,0.00,,---,0.00,0.00,VWS V14.01,2013-07-09 08:22:00,
2013-07-09 01:25:00,62.7,58.5,30.10,NE,47,0.0,1.0,86,0.00,,---,0.00,0.00,VWS V14.01,2013-07-09 08:25:00,
2013-07-09 01:27:00,62.6,58.0,30.10,NE,46,1.0,2.0,85,0.00,,---,0.00,0.00,VWS V14.01,2013-07-09 08:27:00,
2013-07-09 01:30:00,62.4,57.8,30.10,NNE,29,2.0,2.0,85,0.00,,---,0.00,0.00,VWS V14.01,2013-07-09 08:30:00,
2013-07-09 01:32:00,62.0,57.5,30.10,NNE,28,0.0,2.0,85,0.00,,---,0.00,0.00,VWS V14.01,2013-07-09 08:32:00,
2013-07-09 01:35:00,61.9,57.3,30.10,NNE,28,0.0,2.0,85,0.00,,---,0.00,0.00,VWS V14.01,2013-07-09 08:35:00,
2013-07-09 01:37:00,61.7,57.2,30.10,NNE,30,0.0,2.0,85,0.00,,---,0.00,0.00,VWS V14.01,2013-07-09 08:37:00,
2013-07-09 01:40:00,61.7,57.2,30.10,NNE,30,0.0,2.0,85,0.00,,---,0.00,0.00,VWS V14.01,2013-07-09 08:40:00,
2013-07-09 01:42:00,61.8,57.2,30.10,NNE,30,0.0,0.0,85,0.00,,---,0.00,0.00,VWS V14.01,2013-07-09 08:42:00,
2013-07-09 01:45:00,61.8,57.2,30.10,NNE,30,0.0,0.0,85,0.00,,---,0.00,0.00,VWS V14.01,2013-07-09 08:45:00,
2013-07-09 01:47:00,61.8,57.2,30.10,NNE,30,0.0,0.0,85,0.00,,---,0.00,0.00,VWS V14.01,2013-07-09 08:47:00,
2013-07-09 01:50:00,61.9,57.3,30.10,NE,44,2.0,2.0,85,0.00,,---,0.00,0.00,VWS V14.01,2013-07-09 08:50:00,
2013-07-09 01:52:00,61.9,57.3,30.10,NE,44,0.0,2.0,85,0.00,,---,0.00,0.00,VWS V14.01,2013-07-09 08:52:00,
2013-07-09 01:55:00,61.8,57.2,30.10,NE,44,0.0,2.0,85,0.00,,---,0.00,0.00,VWS V14.01,2013-07-09 08:55:00,
2013-07-09 01:57:00,61.7,57.2,30.10,NE,44,0.0,0.0,85,0.00,,---,0.00,0.00,VWS V14.01,2013-07-09 08:57:00,
2013-07-09 02:00:00,61.6,57.4,30.11,NE,44,0.0,0.0,86,0.00,,---,0.00,0.00,VWS V14.01,2013-07-09 09:00:00,
2013-07-09 02:02:00,61.4,57.2,30.11,NE,44,0.0,0.0,86,0.00,,---,0.00,0.00,VWS V14.01,2013-07-09 09:02:00,
2013-07-09 02:05:00,61.3,57.1,30.10,NE,44,0.0,1.0,86,0.00,,---,0.00,0.00,VWS V14.01,2013-07-09 09:05:00,
2013-07-09 02:07:00,61.2,57.3,30.10,NE,44,0.0,0.0,87,0.00,,---,0.00,0.00,VWS V14.01,2013-07-09 09:07:00,
2013-07-09 02:10:00,61.1,57.2,30.10,NE,44,0.0,0.0,87,0.00,,---,0.00,0.00,VWS V14.01,2013-07-09 09:10:00,
2013-07-09 02:12:00,61.1,57.2,30.10,NE,44,0.0,0.0,87,0.00,,---,0.00,0.00,VWS V14.01,2013-07-09 09:12:00,
2013-07-09 02:15:00,61.1,57.2,30.10,NE,44,0.0,0.0,87,0.00,,---,0.00,0.00,VWS V14.01,2013-07-09 09:15:00,
2013-07-09 02:17:00,61.1,57.2,30.11,NE,44,0.0,0.0,87,0.00,,---,0.00,0.00,VWS V14.01,2013-07-09 09:17:00,
2013-07-09 02:20:00,61.1,57.2,30.11,NE,45,0.0,1.0,87,0.00,,---,0.00,0.00,VWS V14.01,2013-07-09 09:20:00,
2013-07-09 02:22:00,61.2,57.3,30.10,NE,44,0.0,1.0,87,0.00,,---,0.00,0.00,VWS V14.01,2013-07-09 09:22:00,
2013-07-09 02:25:00,61.3,57.4,30.10,NE,45,0.0,1.0,87,0.00,,---,0.00,0.00,VWS V14.01,2013-07-09 09:25:00,
2013-07-09 02:27:00,61.2,57.3,30.10,NE,44,0.0,0.0,87,0.00,,---,0.00,0.00,VWS V14.01,2013-07-09 09:27:00,
2013-07-09 02:30:00,61.1,57.2,30.10,NE,44,0.0,0.0,87,0.00,,---,0.00,0.00,VWS V14.01,2013-07-09 09:30:00,
2013-07-09 02:32:00,60.9,57.3,30.10,NE,44,0.0,1.0,88,0.00,,---,0.00,0.00,VWS V14.01,2013-07-09 09:32:00,
2013-07-09 02:35:00,60.8,57.2,30.10,NE,45,0.0,1.0,88,0.00,,---,0.00,0.00,VWS V14.01,2013-07-09 09:35:00,
2013-07-09 02:37:00,60.8,57.2,30.10,NE,45,0.0,1.0,88,0.00,,---,0.00,0.00,VWS V14.01,2013-07-09 09:37:00,
2013-07-09 02:40:00,60.8,57.2,30.10,NE,45,0.0,1.0,88,0.00,,---,0.00,0.00,VWS V14.01,2013-07-09 09:40:00,
2013-07-09 02:42:00,60.8,57.2,30.10,NE,44,0.0,0.0,88,0.00,,---,0.00,0.00,VWS V14.01,2013-07-09 09:42:00,
2013-07-09 02:45:00,60.8,57.2,30.10,NE,45,0.0,0.0,88,0.00,,---,0.00,0.00,VWS V14.01,2013-07-09 09:45:00,
2013-07-09 02:47:00,60.7,57.1,30.10,NE,45,0.0,0.0,88,0.00,,---,0.00,0.00,VWS V14.01,2013-07-09 09:47:00,
2013-07-09 02:50:00,60.7,57.1,30.10,NE,44,0.0,0.0,88,0.00,,---,0.00,0.00,VWS V14.01,2013-07-09 09:50:00,
2013-07-09 02:52:00,60.5,56.9,30.10,NE,44,0.0,0.0,88,0.00,,---,0.00,0.00,VWS V14.01,2013-07-09 09:52:00,
2013-07-09 02:55:00,60.5,57.2,30.10,NE,45,0.0,1.0,89,0.00,,---,0.00,0.00,VWS V14.01,2013-07-09 09:55:00,
2013-07-09 02:57:00,60.4,57.2,30.10,NE,45,0.0,1.0,89,0.00,,---,0.00,0.00,VWS V14.01,2013-07-09 09:57:00,
2013-07-09 03:00:00,60.4,57.2,30.10,NE,44,0.0,1.0,89,0.00,,---,0.00,0.00,VWS V14.01,2013-07-09 10:00:00,
2013-07-09 03:02:00,60.3,57.0,30.10,NE,44,0.0,0.0,89,0.00,,---,0.00,0.00,VWS V14.01,2013-07-09 10:02:00,
2013-07-09 03:05:00,60.3,57.0,30.10,NE,45,0.0,0.0,89,0.00,,---,0.00,0.00,VWS V14.01,2013-07-09 10:05:00,
2013-07-09 03:07:00,60.2,57.0,30.10,NE,44,0.0,1.0,89,0.00,,---,0.00,0.00,VWS V14.01,2013-07-09 10:07:00,
2013-07-09 03:10:00,60.1,56.8,30.10,NE,44,0.0,1.0,89,0.00,,---,0.00,0.00,VWS V14.01,2013-07-09 10:10:00,
2013-07-09 03:12:00,60.0,56.8,30.10,NE,45,0.0,0.0,89,0.00,,---,0.00,0.00,VWS V14.01,2013-07-09 10:12:00,
2013-07-09 03:15:00,59.9,56.7,30.10,NE,45,0.0,0.0,89,0.00,,---,0.00,0.00,VWS V14.01,2013-07-09 10:15:00,
2013-07-09 03:17:00,59.8,56.9,30.10,NE,45,0.0,0.0,90,0.00,,---,0.00,0.00,VWS V14.01,2013-07-09 10:17:00,
2013-07-09 03:20:00,59.8,56.6,30.10,NE,44,0.0,0.0,89,0.00,,---,0.00,0.00,VWS V14.01,2013-07-09 10:20:00,
2013-07-09 03:22:00,59.7,56.8,30.10,NE,45,0.0,0.0,90,0.00,,---,0.00,0.00,VWS V14.01,2013-07-09 10:22:00,
2013-07-09 03:25:00,59.7,56.8,30.10,NE,44,0.0,0.0,90,0.00,,---,0.00,0.00,VWS V14.01,2013-07-09 10:25:00,
2013-07-09 03:27:00,59.6,56.7,30.10,NE,44,0.0,0.0,90,0.00,,---,0.00,0.00,VWS V14.01,2013-07-09 10:27:00,
2013-07-09 03:30:00,59.6,56.7,30.10,NE,44,0.0,0.0,90,0.00,,---,0.00,0.00,VWS V14.01,2013-07-09 10:30:00,
2013-07-09 03:32:00,59.5,56.6,30.10,NE,45,0.0,0.0,90,0.00,,---,0.00,0.00,VWS V14.01,2013-07-09 10:32:00,
2013-07-09 03:35:00,59.5,56.6,30.10,NE,45,1.0,1.0,90,0.00,,---,0.00,0.00,VWS V14.01,2013-07-09 10:35:00,
2013-07-09 03:37:00,59.5,56.6,30.10,NE,45,0.0,1.0,90,0.00,,---,0.00,0.00,VWS V14.01,2013-07-09 10:37:00,
2013-07-09 03:40:00,59.4,56.5,30.10,NE,45,0.0,1.0,90,0.00,,---,0.00,0.00,VWS V14.01,2013-07-09 10:40:00,
2013-07-09 03:42:00,59.4,56.5,30.10,NE,44,0.0,0.0,90,0.00,,---,0.00,0.00,VWS V14.01,2013-07-09 10:42:00,
2013-07-09 03:45:00,59.4,56.5,30.10,NE,45,0.0,0.0,90,0.00,,---,0.00,0.00,VWS V14.01,2013-07-09 10:45:00,
2013-07-09 03:47:00,59.4,56.5,30.10,NE,44,0.0,0.0,90,0.00,,---,0.00,0.00,VWS V14.01,2013-07-09 10:47:00,
2013-07-09 03:50:00,59.4,56.8,30.10,NE,45,0.0,0.0,91,0.00,,---,0.00,0.00,VWS V14.01,2013-07-09 10:50:00,
2013-07-09 03:52:00,59.3,56.4,30.10,NE,45,0.0,0.0,90,0.00,,---,0.00,0.00,VWS V14.01,2013-07-09 10:52:00,
2013-07-09 03:55:00,59.1,56.2,30.10,NE,44,0.0,0.0,90,0.00,,---,0.00,0.00,VWS V14.01,2013-07-09 10:55:00,
2013-07-09 03:57:00,59.0,56.4,30.10,NE,44,0.0,1.0,91,0.00,,---,0.00,0.00,VWS V14.01,2013-07-09 10:57:00,
2013-07-09 04:00:00,59.0,56.4,30.10,NE,45,0.0,1.0,91,0.00,,---,0.00,0.00,VWS V14.01,2013-07-09 11:00:00,
2013-07-09 04:02:00,59.0,56.4,30.10,NE,45,0.0,1.0,91,0.00,,---,0.00,0.00,VWS V14.01,2013-07-09 11:02:00,
2013-07-09 04:05:00,58.9,56.3,30.10,NE,45,0.0,1.0,91,0.00,,---,0.00,0.00,VWS V14.01,2013-07-09 11:05:00,
2013-07-09 04:07:00,58.9,56.3,30.10,NE,44,0.0,0.0,91,0.00,,---,0.00,0.00,VWS V14.01,2013-07-09 11:07:00,
2013-07-09 04:10:00,58.9,56.3,30.10,NE,44,0.0,1.0,91,0.00,,---,0.00,0.00,VWS V14.01,2013-07-09 11:10:00,
2013-07-09 04:12:00,58.8,56.5,30.10,NE,45,0.0,1.0,92,0.00,,---,0.00,0.00,VWS V14.01,2013-07-09 11:12:00,
2013-07-09 04:15:00,58.8,56.5,30.10,NE,46,0.0,1.0,92,0.00,,---,0.00,0.00,VWS V14.01,2013-07-09 11:15:00,
2013-07-09 04:17:00,58.7,56.1,30.10,NE,46,0.0,0.0,91,0.00,,---,0.00,0.00,VWS V14.01,2013-07-09 11:17:00,
2013-07-09 04:20:00,58.7,56.1,30.10,NE,38,2.0,3.0,91,0.00,,---,0.00,0.00,VWS V14.01,2013-07-09 11:20:00,
2013-07-09 04:22:00,58.6,56.3,30.10,NE,40,0.0,3.0,92,0.00,,---,0.00,0.00,VWS V14.01,2013-07-09 11:22:00,
2013-07-09 04:25:00,58.6,56.3,30.11,NE,39,0.0,3.0,92,0.00,,---,0.00,0.00,VWS V14.01,2013-07-09 11:25:00,
2013-07-09 04:27:00,58.6,56.3,30.10,NE,39,0.0,1.0,92,0.00,,---,0.00,0.00,VWS V14.01,2013-07-09 11:27:00,
2013-07-09 04:30:00,58.6,56.3,30.11,NE,39,0.0,1.0,92,0.00,,---,0.00,0.00,VWS V14.01,2013-07-09 11:30:00,
2013-07-09 04:32:00,58.6,56.3,30.10,NE,39,0.0,1.0,92,0.00,,---,0.00,0.00,VWS V14.01,2013-07-09 11:32:00,
2013-07-09 04:35:00,58.6,56.3,30.10,NE,39,0.0,1.0,92,0.00,,---,0.00,0.00,VWS V14.01,2013-07-09 11:35:00,
2013-07-09 04:37:00,58.4,56.1,30.11,NE,40,0.0,0.0,92,0.00,,---,0.00,0.00,VWS V14.01,2013-07-09 11:37:00,
2013-07-09 04:40:00,58.4,56.4,30.11,NE,39,0.0,0.0,93,0.00,,---,0.00,0.00,VWS V14.01,2013-07-09 11:40:00,
2013-07-09 04:42:00,58.4,56.1,30.10,NE,40,0.0,0.0,92,0.00,,---,0.00,0.00,VWS V14.01,2013-07-09 11:42:00,
2013-07-09 04:45:00,58.3,56.3,30.11,NE,39,0.0,0.0,93,0.00,,---,0.00,0.00,VWS V14.01,2013-07-09 11:45:00,
2013-07-09 04:47:00,58.3,56.3,30.10,NE,40,0.0,0.0,93,0.00,,---,0.00,0.00,VWS V14.01,2013-07-09 11:47:00,
2013-07-09 04:50:00,58.3,56.3,30.10,NE,40,0.0,0.0,93,0.00,,---,0.00,0.00,VWS V14.01,2013-07-09 11:50:00,
2013-07-09 04:52:00,58.3,56.3,30.10,NE,40,0.0,1.0,93,0.00,,---,0.00,0.00,VWS V14.01,2013-07-09 11:52:00,
2013-07-09 04:55:00,58.3,56.3,30.10,NE,39,0.0,1.0,93,0.00,,---,0.00,0.00,VWS V14.01,2013-07-09 11:55:00,
2013-07-09 04:57:00,58.2,56.2,30.10,NE,40,0.0,0.0,93,0.00,,---,0.00,0.00,VWS V14.01,2013-07-09 11:57:00,
2013-07-09 05:00:00,58.2,56.2,30.10,NE,39,0.0,0.0,93,0.00,,---,0.00,0.00,VWS V14.01,2013-07-09 12:00:00,
2013-07-09 05:02:00,58.1,56.1,30.10,NE,40,0.0,0.0,93,0.00,,---,0.00,0.00,VWS V14.01,2013-07-09 12:02:00,
2013-07-09 05:05:00,58.1,56.1,30.11,NE,40,0.0,0.0,93,0.00,,---,0.00,0.00,VWS V14.01,2013-07-09 12:05:00,
2013-07-09 05:07:00,58.1,56.1,30.10,NE,40,0.0,0.0,93,0.00,,---,0.00,0.00,VWS V14.01,2013-07-09 12:07:00,
2013-07-09 05:10:00,58.1,56.1,30.11,NE,39,0.0,0.0,93,0.00,,---,0.00,0.00,VWS V14.01,2013-07-09 12:10:00,
2013-07-09 05:12:00,58.0,56.0,30.11,NE,39,0.0,0.0,93,0.00,,---,0.00,0.00,VWS V14.01,2013-07-09 12:12:00,
2013-07-09 05:15:00,58.0,56.3,30.11,NE,39,0.0,0.0,94,0.00,,---,0.00,0.00,VWS V14.01,2013-07-09 12:15:00,
2013-07-09 05:17:00,58.1,56.4,30.11,NE,40,0.0,0.0,94,0.00,,---,0.00,0.00,VWS V14.01,2013-07-09 12:17:00,
2013-07-09 05:20:00,58.1,56.4,30.11,NE,40,0.0,0.0,94,0.00,,---,0.00,0.00,VWS V14.01,2013-07-09 12:20:00,
2013-07-09 05:22:00,58.1,56.4,30.11,NE,39,0.0,0.0,94,0.00,,---,0.00,0.00,VWS V14.01,2013-07-09 12:22:00,
2013-07-09 05:25:00,58.0,56.0,30.11,NE,40,0.0,1.0,93,0.00,,---,0.00,5.00,VWS V14.01,2013-07-09 12:25:00,
2013-07-09 05:27:00,57.9,56.2,30.11,NE,40,0.0,0.0,94,0.00,,---,0.00,5.00,VWS V14.01,2013-07-09 12:27:00,
2013-07-09 05:30:00,57.9,56.2,30.11,NE,40,0.0,0.0,94,0.00,,---,0.00,5.00,VWS V14.01,2013-07-09 12:30:00,
2013-07-09 05:32:00,57.9,56.2,30.11,NE,40,0.0,0.0,94,0.00,,---,0.00,7.00,VWS V14.01,2013-07-09 12:32:00,
2013-07-09 05:35:00,57.9,56.2,30.11,NE,39,0.0,0.0,94,0.00,,---,0.00,7.00,VWS V14.01,2013-07-09 12:35:00,
2013-07-09 05:37:00,57.9,55.9,30.11,NE,39,1.0,1.0,93,0.00,,---,0.00,9.00,VWS V14.01,2013-07-09 12:37:00,
2013-07-09 05:40:00,57.8,56.1,30.11,NE,39,0.0,1.0,94,0.00,,---,0.00,11.00,VWS V14.01,2013-07-09 12:40:00,
2013-07-09 05:42:00,57.8,56.1,30.11,NE,40,1.0,1.0,94,0.00,,---,0.00,11.00,VWS V14.01,2013-07-09 12:42:00,
2013-07-09 05:45:00,58.0,56.3,30.11,NE,40,0.0,1.0,94,0.00,,---,0.00,12.00,VWS V14.01,2013-07-09 12:45:00,
2013-07-09 05:47:00,58.2,56.5,30.11,NE,40,0.0,1.0,94,0.00,,---,0.00,12.00,VWS V14.01,2013-07-09 12:47:00,
2013-07-09 05:50:00,58.4,56.7,30.11,NE,39,0.0,1.0,94,0.00,,---,0.00,14.00,VWS V14.01,2013-07-09 12:50:00,
2013-07-09 05:52:00,58.5,56.8,30.11,NE,39,0.0,0.0,94,0.00,,---,0.00,16.00,VWS V14.01,2013-07-09 12:52:00,
2013-07-09 05:55:00,58.6,56.9,30.11,NE,40,0.0,0.0,94,0.00,,---,0.00,16.00,VWS V14.01,2013-07-09 12:55:00,
2013-07-09 05:57:00,58.6,56.6,30.11,NE,40,0.0,0.0,93,0.00,,---,0.00,18.00,VWS V14.01,2013-07-09 12:57:00,
2013-07-09 06:00:00,58.6,56.6,30.11,NE,40,0.0,0.0,93,0.00,,---,0.00,18.00,VWS V14.01,2013-07-09 13:00:00,
2013-07-09 06:02:00,58.5,56.5,30.11,NE,39,0.0,0.0,93,0.00,,---,0.00,18.00,VWS V14.01,2013-07-09 13:02:00,
2013-07-09 06:05:00,58.6,56.6,30.11,NE,39,0.0,0.0,93,0.00,,---,0.00,19.00,VWS V14.01,2013-07-09 13:05:00,
2013-07-09 06:07:00,58.6,56.6,30.11,NE,40,0.0,0.0,93,0.00,,---,0.00,21.00,VWS V14.01,2013-07-09 13:07:00,
2013-07-09 06:10:00,58.7,56.7,30.11,NE,40,0.0,0.0,93,0.00,,---,0.00,21.00,VWS V14.01,2013-07-09 13:10:00,
2013-07-09 06:12:00,58.6,56.6,30.11,NE,39,0.0,0.0,93,0.00,,---,0.00,23.00,VWS V14.01,2013-07-09 13:12:00,
2013-07-09 06:15:00,58.6,56.6,30.11,NE,39,0.0,0.0,93,0.00,,---,0.00,23.00,VWS V14.01,2013-07-09 13:15:00,
2013-07-09 06:17:00,58.7,56.7,30.11,NE,40,0.0,0.0,93,0.00,,---,0.00,23.00,VWS V14.01,2013-07-09 13:17:00,
2013-07-09 06:20:00,58.7,56.7,30.11,NE,40,0.0,0.0,93,0.00,,---,0.00,25.00,VWS V14.01,2013-07-09 13:20:00,
2013-07-09 06:22:00,58.7,56.7,30.11,NE,39,0.0,0.0,93,0.00,,---,0.00,25.00,VWS V14.01,2013-07-09 13:22:00,
2013-07-09 06:25:00,58.7,56.7,30.11,NE,39,0.0,0.0,93,0.00,,---,0.00,25.00,VWS V14.01,2013-07-09 13:25:00,
2013-07-09 06:27:00,58.6,56.6,30.11,NE,40,0.0,0.0,93,0.00,,---,0.00,26.00,VWS V14.01,2013-07-09 13:27:00,
2013-07-09 06:30:00,58.6,56.6,30.11,NE,40,0.0,0.0,93,0.00,,---,0.00,26.00,VWS V14.01,2013-07-09 13:30:00,
2013-07-09 06:32:00,58.5,56.5,30.11,NE,40,0.0,0.0,93,0.00,,---,0.00,28.00,VWS V14.01,2013-07-09 13:32:00,
2013-07-09 06:35:00,58.6,56.6,30.11,NE,40,0.0,0.0,93,0.00,,---,0.00,28.00,VWS V14.01,2013-07-09 13:35:00,
2013-07-09 06:37:00,58.8,56.8,30.11,NE,39,0.0,0.0,93,0.00,,---,0.00,28.00,VWS V14.01,2013-07-09 13:37:00,
2013-07-09 06:40:00,58.9,56.9,30.11,NE,39,0.0,0.0,93,0.00,,---,0.00,30.00,VWS V14.01,2013-07-09 13:40:00,
2013-07-09 06:42:00,59.1,56.8,30.11,NE,40,0.0,0.0,92,0.00,,---,0.00,30.00,VWS V14.01,2013-07-09 13:42:00,
2013-07-09 06:45:00,59.2,56.9,30.11,NE,39,0.0,1.0,92,0.00,,---,0.00,30.00,VWS V14.01,2013-07-09 13:45:00,
2013-07-09 06:47:00,59.5,56.9,30.11,NE,39,0.0,0.0,91,0.00,,---,0.00,60.00,VWS V14.01,2013-07-09 13:47:00,
2013-07-09 06:50:00,59.5,56.9,30.11,NE,39,0.0,0.0,91,0.00,,---,0.00,93.00,VWS V14.01,2013-07-09 13:50:00,
2013-07-09 06:52:00,59.8,56.9,30.11,NE,40,0.0,0.0,90,0.00,,---,0.00,135.00,VWS V14.01,2013-07-09 13:52:00,
2013-07-09 06:55:00,59.9,56.7,30.11,NE,40,0.0,0.0,89,0.00,,---,0.00,139.00,VWS V14.01,2013-07-09 13:55:00,
2013-07-09 06:57:00,60.1,56.8,30.11,NE,39,0.0,3.0,89,0.00,,---,0.00,148.00,VWS V14.01,2013-07-09 13:57:00,
2013-07-09 07:00:00,60.3,57.0,30.11,NE,39,0.0,3.0,89,0.00,,---,0.00,153.00,VWS V14.01,2013-07-09 14:00:00,
2013-07-09 07:02:00,60.6,57.0,30.11,ENE,58,0.0,2.0,88,0.00,,---,0.00,162.00,VWS V14.01,2013-07-09 14:02:00,
2013-07-09 07:05:00,60.7,57.1,30.11,ENE,58,0.0,2.0,88,0.00,,---,0.00,167.00,VWS V14.01,2013-07-09 14:05:00,
2013-07-09 07:07:00,60.9,57.3,30.11,ENE,58,0.0,0.0,88,0.00,,---,0.00,176.00,VWS V14.01,2013-07-09 14:07:00,
2013-07-09 07:10:00,61.0,57.1,30.11,ENE,58,1.0,1.0,87,0.00,,---,0.00,181.00,VWS V14.01,2013-07-09 14:10:00,
2013-07-09 07:12:00,61.1,57.2,30.11,NNE,30,0.0,3.0,87,0.00,,---,0.00,192.00,VWS V14.01,2013-07-09 14:12:00,
2013-07-09 07:15:00,61.2,57.3,30.11,NNE,33,1.0,3.0,87,0.00,,---,0.00,197.00,VWS V14.01,2013-07-09 14:15:00,
2013-07-09 07:17:00,61.3,57.1,30.11,NE,36,1.0,2.0,86,0.00,,---,0.00,204.00,VWS V14.01,2013-07-09 14:17:00,
2013-07-09 07:20:00,61.4,57.2,30.12,NE,36,0.0,2.0,86,0.00,,---,0.00,211.00,VWS V14.01,2013-07-09 14:20:00,
2013-07-09 07:22:00,61.6,57.0,30.12,NE,36,0.0,0.0,85,0.00,,---,0.00,220.00,VWS V14.01,2013-07-09 14:22:00,
2013-07-09 07:25:00,61.7,57.2,30.12,NE,36,0.0,1.0,85,0.00,,---,0.00,225.00,VWS V14.01,2013-07-09 14:25:00,
2013-07-09 07:27:00,61.9,57.0,30.12,NE,36,0.0,1.0,84,0.00,,---,0.00,234.00,VWS V14.01,2013-07-09 14:27:00,
2013-07-09 07:30:00,62.1,56.9,30.12,NE,36,0.0,1.0,83,0.00,,---,0.00,237.00,VWS V14.01,2013-07-09 14:30:00,
2013-07-09 07:32:00,62.3,57.1,30.12,NE,38,0.0,0.0,83,0.00,,---,0.00,248.00,VWS V14.01,2013-07-09 14:32:00,
2013-07-09 07:35:00,62.4,57.2,30.12,NE,38,0.0,0.0,83,0.00,,---,0.00,251.00,VWS V14.01,2013-07-09 14:35:00,
2013-07-09 07:37:00,62.7,57.5,30.12,NE,38,1.0,1.0,83,0.00,,---,0.00,262.00,VWS V14.01,2013-07-09 14:37:00,
2013-07-09 07:40:00,62.8,57.2,30.12,NE,44,4.0,4.0,82,0.00,,---,0.00,267.00,VWS V14.01,2013-07-09 14:40:00,
2013-07-09 07:42:00,63.0,57.1,30.12,NE,44,0.0,4.0,81,0.00,,---,0.00,278.00,VWS V14.01,2013-07-09 14:42:00,
2013-07-09 07:45:00,63.1,57.2,30.12,East,88,2.0,4.0,81,0.00,,---,0.00,281.00,VWS V14.01,2013-07-09 14:45:00,
2013-07-09 07:47:00,63.3,57.0,30.12,East,88,1.0,2.0,80,0.00,,---,0.00,288.00,VWS V14.01,2013-07-09 14:47:00,
2013-07-09 07:50:00,63.4,57.5,30.12,East,88,0.0,2.0,81,0.00,,---,0.00,295.00,VWS V14.01,2013-07-09 14:50:00,
2013-07-09 07:52:00,63.6,57.0,30.12,NE,47,2.0,3.0,79,0.00,,---,0.00,313.00,VWS V14.01,2013-07-09 14:52:00,
2013-07-09 07:55:00,63.7,57.1,30.12,NE,48,1.0,3.0,79,0.00,,---,0.00,318.00,VWS V14.01,2013-07-09 14:55:00,
2013-07-09 07:57:00,63.8,57.2,30.12,NE,36,0.0,3.0,79,0.00,,---,0.00,318.00,VWS V14.01,2013-07-09 14:57:00,
2013-07-09 08:00:00,63.9,57.3,30.12,NE,51,0.0,3.0,79,0.00,,---,0.00,322.00,VWS V14.01,2013-07-09 15:00:00,
2013-07-09 08:02:00,63.8,57.2,30.12,NE,51,0.0,1.0,79,0.00,,---,0.00,330.00,VWS V14.01,2013-07-09 15:02:00,
2013-07-09 08:05:00,63.7,56.7,30.12,NE,51,0.0,1.0,78,0.00,,---,0.00,336.00,VWS V14.01,2013-07-09 15:05:00,
2013-07-09 08:07:00,63.8,56.5,30.12,NE,51,0.0,0.0,77,0.00,,---,0.00,345.00,VWS V14.01,2013-07-09 15:07:00,
2013-07-09 08:10:00,63.8,56.8,30.12,NE,51,0.0,0.0,78,0.00,,---,0.00,350.00,VWS V14.01,2013-07-09 15:10:00,
2013-07-09 08:12:00,64.0,57.0,30.12,NE,51,0.0,0.0,78,0.00,,---,0.00,359.00,VWS V14.01,2013-07-09 15:12:00,
2013-07-09 08:15:00,64.3,57.3,30.12,NE,51,0.0,2.0,78,0.00,,---,0.00,364.00,VWS V14.01,2013-07-09 15:15:00,
2013-07-09 08:17:00,64.7,57.0,30.12,NE,49,0.0,1.0,76,0.00,,---,0.00,373.00,VWS V14.01,2013-07-09 15:17:00,
2013-07-09 08:20:00,64.7,57.3,30.12,NE,48,0.0,2.0,77,0.00,,---,0.00,390.00,VWS V14.01,2013-07-09 15:20:00,
2013-07-09 08:22:00,64.7,57.0,30.12,NNE,19,1.0,3.0,76,0.00,,---,0.00,385.00,VWS V14.01,2013-07-09 15:22:00,
2013-07-09 08:25:00,64.7,57.3,30.12,NNE,19,3.0,3.0,77,0.00,,---,0.00,390.00,VWS V14.01,2013-07-09 15:25:00,
2013-07-09 08:27:00,64.9,57.5,30.12,NNE,18,2.0,4.0,77,0.00,,---,0.00,399.00,VWS V14.01,2013-07-09 15:27:00,
2013-07-09 08:30:00,65.0,57.6,30.12,NW,306,0.0,4.0,77,0.00,,---,0.00,404.00,VWS V14.01,2013-07-09 15:30:00,
2013-07-09 08:32:00,65.1,57.0,30.12,WNW,288,1.0,3.0,75,0.00,,---,0.00,413.00,VWS V14.01,2013-07-09 15:32:00,
2013-07-09 08:35:00,65.1,57.7,30.12,WNW,288,2.0,3.0,77,0.00,,---,0.00,417.00,VWS V14.01,2013-07-09 15:35:00,
2013-07-09 08:37:00,64.9,57.5,30.12,WSW,255,1.0,3.0,77,0.00,,---,0.00,427.00,VWS V14.01,2013-07-09 15:37:00,
2013-07-09 08:40:00,64.8,57.1,30.12,WSW,256,0.0,3.0,76,0.00,,---,0.00,431.00,VWS V14.01,2013-07-09 15:40:00,
2013-07-09 08:42:00,64.8,57.8,30.13,WSW,256,0.0,1.0,78,0.00,,---,0.00,441.00,VWS V14.01,2013-07-09 15:42:00,
2013-07-09 08:45:00,64.8,57.4,30.13,WSW,256,1.0,1.0,77,0.00,,---,0.00,443.00,VWS V14.01,2013-07-09 15:45:00,
2013-07-09 08:47:00,65.2,57.5,30.13,SW,228,2.0,3.0,76,0.00,,---,0.00,455.00,VWS V14.01,2013-07-09 15:47:00,
2013-07-09 08:50:00,65.4,58.4,30.12,West,272,0.0,3.0,78,0.00,,---,0.00,461.00,VWS V14.01,2013-07-09 15:50:00,
2013-07-09 08:52:00,66.1,58.3,30.13,NNW,343,3.0,3.0,76,0.00,,---,0.00,468.00,VWS V14.01,2013-07-09 15:52:00,
2013-07-09 08:55:00,66.1,58.3,30.13,NW,325,4.0,4.0,76,0.00,,---,0.00,473.00,VWS V14.01,2013-07-09 15:55:00,
2013-07-09 08:57:00,66.0,58.6,30.13,NNW,348,3.0,4.0,77,0.00,,---,0.00,480.00,VWS V14.01,2013-07-09 15:57:00,
2013-07-09 09:00:00,66.1,58.0,30.12,North,349,0.0,4.0,75,0.00,,---,0.00,485.00,VWS V14.01,2013-07-09 16:00:00,
2013-07-09 09:02:00,66.4,58.2,30.12,NNW,348,0.0,0.0,75,0.00,,---,0.00,494.00,VWS V14.01,2013-07-09 16:02:00,
2013-07-09 09:05:00,66.5,58.7,30.12,NNW,338,2.0,2.0,76,0.00,,---,0.00,497.00,VWS V14.01,2013-07-09 16:05:00,
2013-07-09 09:07:00,66.7,57.8,30.12,WSW,254,0.0,4.0,73,0.00,,---,0.00,506.00,VWS V14.01,2013-07-09 16:07:00,
2013-07-09 09:10:00,66.7,58.2,30.12,WSW,250,1.0,4.0,74,0.00,,---,0.00,510.00,VWS V14.01,2013-07-09 16:10:00,
2013-07-09 09:12:00,66.8,58.6,30.12,NNW,336,1.0,3.0,75,0.00,,---,0.00,519.00,VWS V14.01,2013-07-09 16:12:00,
2013-07-09 09:15:00,66.9,58.3,30.12,NNW,333,2.0,3.0,74,0.00,,---,0.00,522.00,VWS V14.01,2013-07-09 16:15:00,
2013-07-09 09:17:00,67.0,57.7,30.12,NNW,345,2.0,4.0,72,0.00,,---,0.00,533.00,VWS V14.01,2013-07-09 16:17:00,
2013-07-09 09:20:00,67.0,57.7,30.12,North,9,2.0,4.0,72,0.00,,---,0.00,538.00,VWS V14.01,2013-07-09 16:20:00,
2013-07-09 09:22:00,67.2,57.9,30.12,NNE,21,0.0,3.0,72,0.00,,---,0.00,547.00,VWS V14.01,2013-07-09 16:22:00,
2013-07-09 09:25:00,67.5,58.2,30.12,NNE,21,0.0,3.0,72,0.00,,---,0.00,552.00,VWS V14.01,2013-07-09 16:25:00,
2013-07-09 09:27:00,67.6,57.5,30.12,West,271,0.0,5.0,70,0.00,,---,0.00,557.00,VWS V14.01,2013-07-09 16:27:00,
2013-07-09 09:30:00,67.5,57.4,30.12,SW,222,3.0,5.0,70,0.00,,---,0.00,564.00,VWS V14.01,2013-07-09 16:30:00,
2013-07-09 09:32:00,67.6,59.0,30.12,WSW,256,3.0,5.0,74,0.00,,---,0.00,571.00,VWS V14.01,2013-07-09 16:32:00,
2013-07-09 09:35:00,67.6,57.5,30.12,SW,216,1.0,5.0,70,0.00,,---,0.00,577.00,VWS V14.01,2013-07-09 16:35:00,
2013-07-09 09:37:00,67.7,57.6,30.12,WNW,296,2.0,5.0,70,0.00,,---,0.00,584.00,VWS V14.01,2013-07-09 16:37:00,
2013-07-09 09:40:00,67.9,57.8,30.12,WNW,298,3.0,5.0,70,0.00,,---,0.00,587.00,VWS V14.01,2013-07-09 16:40:00,
2013-07-09 09:42:00,68.0,58.3,30.12,WNW,294,1.0,4.0,71,0.00,,---,0.00,596.00,VWS V14.01,2013-07-09 16:42:00,
2013-07-09 09:45:00,68.0,57.1,30.12,WNW,286,2.0,4.0,68,0.00,,---,0.00,601.00,VWS V14.01,2013-07-09 16:45:00,
2013-07-09 09:47:00,68.2,57.7,30.12,West,260,1.0,6.0,69,0.00,,---,0.00,610.00,VWS V14.01,2013-07-09 16:47:00,
2013-07-09 09:50:00,68.2,57.7,30.12,West,269,1.0,6.0,69,0.00,,---,0.00,584.00,VWS V14.01,2013-07-09 16:50:00,
2013-07-09 09:52:00,68.3,57.8,30.12,WNW,285,0.0,1.0,69,0.00,,---,0.00,621.00,VWS V14.01,2013-07-09 16:52:00,
2013-07-09 09:55:00,68.6,58.0,30.12,WNW,297,2.0,5.0,69,0.00,,---,0.00,624.00,VWS V14.01,2013-07-09 16:55:00,
2013-07-09 09:57:00,69.2,59.0,30.12,WNW,295,3.0,5.0,70,0.00,,---,0.00,631.00,VWS V14.01,2013-07-09 16:57:00,
2013-07-09 10:00:00,69.3,58.3,30.12,NW,315,1.0,5.0,68,0.00,,---,0.00,635.00,VWS V14.01,2013-07-09 17:00:00,
2013-07-09 10:02:00,69.2,57.8,30.12,SSW,197,3.0,4.0,67,0.00,,---,0.00,642.00,VWS V14.01,2013-07-09 17:02:00,
2013-07-09 10:05:00,69.1,58.5,30.12,WNW,298,4.0,4.0,69,0.00,,---,0.00,647.00,VWS V14.01,2013-07-09 17:05:00,
2013-07-09 10:07:00,69.4,58.4,30.12,WNW,297,1.0,4.0,68,0.00,,---,0.00,654.00,VWS V14.01,2013-07-09 17:07:00,
2013-07-09 10:10:00,69.3,57.0,30.12,WSW,252,0.0,4.0,65,0.00,,---,0.00,659.00,VWS V14.01,2013-07-09 17:10:00,
2013-07-09 10:12:00,69.4,59.2,30.11,South,180,2.0,2.0,70,0.00,,---,0.00,666.00,VWS V14.01,2013-07-09 17:12:00,
2013-07-09 10:15:00,69.5,57.7,30.11,South,176,2.0,2.0,66,0.00,,---,0.00,668.00,VWS V14.01,2013-07-09 17:15:00,
2013-07-09 10:17:00,69.8,58.4,30.11,WSW,257,2.0,4.0,67,0.00,,---,0.00,677.00,VWS V14.01,2013-07-09 17:17:00,
2013-07-09 10:20:00,69.9,58.5,30.11,WSW,247,2.0,4.0,67,0.00,,---,0.00,680.00,VWS V14.01,2013-07-09 17:20:00,
2013-07-09 10:22:00,70.0,58.5,30.11,WSW,246,2.0,3.0,67,0.00,,---,0.00,687.00,VWS V14.01,2013-07-09 17:22:00,
2013-07-09 10:25:00,70.1,58.2,30.11,NW,306,5.0,5.0,66,0.00,,---,0.00,691.00,VWS V14.01,2013-07-09 17:25:00,
2013-07-09 10:27:00,70.2,59.2,30.11,NNW,329,0.0,6.0,68,0.00,,---,0.00,698.00,VWS V14.01,2013-07-09 17:27:00,
2013-07-09 10:30:00,70.4,58.5,30.11,West,265,1.0,6.0,66,0.00,,---,0.00,703.00,VWS V14.01,2013-07-09 17:30:00,
2013-07-09 10:33:00,70.6,58.7,30.11,West,269,4.0,5.0,66,0.00,,---,0.00,708.00,VWS V14.01,2013-07-09 17:33:00,
2013-07-09 10:35:00,70.5,59.0,30.11,WSW,258,1.0,5.0,67,0.00,,---,0.00,712.00,VWS V14.01,2013-07-09 17:35:00,
2013-07-09 10:38:00,70.6,59.5,30.11,SW,225,3.0,4.0,68,0.00,,---,0.00,717.00,VWS V14.01,2013-07-09 17:38:00,
2013-07-09 10:40:00,70.8,59.7,30.11,SW,232,2.0,4.0,68,0.00,,---,0.00,719.00,VWS V14.01,2013-07-09 17:40:00,
2013-07-09 10:43:00,71.3,61.4,30.11,WSW,254,4.0,5.0,71,0.00,,---,0.00,724.00,VWS V14.01,2013-07-09 17:43:00,
2013-07-09 10:45:00,71.5,60.8,30.11,West,261,2.0,5.0,69,0.00,,---,0.00,728.00,VWS V14.01,2013-07-09 17:45:00,
2013-07-09 10:48:00,71.3,59.4,30.11,South,178,1.0,4.0,66,0.00,,---,0.00,735.00,VWS V14.01,2013-07-09 17:48:00,
2013-07-09 10:50:00,71.2,59.7,30.11,SW,215,5.0,7.0,67,0.00,,---,0.00,738.00,VWS V14.01,2013-07-09 17:50:00,
2013-07-09 10:53:00,70.8,59.3,30.11,SW,235,4.0,7.0,67,0.00,,---,0.00,744.00,VWS V14.01,2013-07-09 17:53:00,
2013-07-09 10:55:00,70.8,59.7,30.11,SW,225,5.0,7.0,68,0.00,,---,0.00,747.00,VWS V14.01,2013-07-09 17:55:00,
2013-07-09 10:58:00,71.0,59.9,30.11,South,186,4.0,7.0,68,0.00,,---,0.00,754.00,VWS V14.01,2013-07-09 17:58:00,
2013-07-09 11:00:00,70.8,59.3,30.11,SSW,208,5.0,7.0,67,0.00,,---,0.00,758.00,VWS V14.01,2013-07-09 18:00:00,
2013-07-09 11:03:00,71.3,60.6,30.11,SSW,197,4.0,9.0,69,0.00,,---,0.00,765.00,VWS V14.01,2013-07-09 18:03:00,
2013-07-09 11:05:00,71.4,60.3,30.11,SW,229,6.0,9.0,68,0.00,,---,0.00,766.00,VWS V14.01,2013-07-09 18:05:00,
2013-07-09 11:08:00,71.5,59.6,30.11,West,264,4.0,6.0,66,0.00,,---,0.00,772.00,VWS V14.01,2013-07-09 18:08:00,
2013-07-09 11:10:00,71.7,60.2,30.11,SW,223,5.0,8.0,67,0.00,,---,0.00,777.00,VWS V14.01,2013-07-09 18:10:00,
2013-07-09 11:13:00,71.5,59.1,30.11,SW,221,7.0,7.0,65,0.00,,---,0.00,782.00,VWS V14.01,2013-07-09 18:13:00,
2013-07-09 11:15:00,71.3,58.5,30.11,SSW,208,4.0,7.0,64,0.00,,---,0.00,786.00,VWS V14.01,2013-07-09 18:15:00,
2013-07-09 11:18:00,71.3,58.9,30.10,SW,218,4.0,7.0,65,0.00,,---,0.00,791.00,VWS V14.01,2013-07-09 18:18:00,
2013-07-09 11:20:00,71.5,60.0,30.10,SW,223,4.0,7.0,67,0.00,,---,0.00,791.00,VWS V14.01,2013-07-09 18:20:00,
2013-07-09 11:23:00,71.9,59.9,30.10,South,191,7.0,7.0,66,0.00,,---,0.00,796.00,VWS V14.01,2013-07-09 18:23:00,
2013-07-09 11:25:00,71.8,60.3,30.10,SSW,200,5.0,7.0,67,0.00,,---,0.00,798.00,VWS V14.01,2013-07-09 18:25:00,
2013-07-09 11:28:00,71.9,59.5,30.10,SW,231,4.0,7.0,65,0.00,,---,0.00,802.00,VWS V14.01,2013-07-09 18:28:00,
2013-07-09 11:30:00,72.1,61.0,30.10,SW,225,5.0,7.0,68,0.00,,---,0.00,809.00,VWS V14.01,2013-07-09 18:30:00,
2013-07-09 11:33:00,72.1,59.7,30.10,SW,225,4.0,7.0,65,0.00,,---,0.00,810.00,VWS V14.01,2013-07-09 18:33:00,
2013-07-09 11:35:00,72.0,59.6,30.10,SW,231,2.0,7.0,65,0.00,,---,0.00,810.00,VWS V14.01,2013-07-09 18:35:00,
2013-07-09 11:38:00,72.5,60.9,30.10,WSW,240,1.0,4.0,67,0.00,,---,0.00,816.00,VWS V14.01,2013-07-09 18:38:00,
2013-07-09 11:40:00,72.9,60.9,30.10,West,271,7.0,7.0,66,0.00,,---,0.00,816.00,VWS V14.01,2013-07-09 18:40:00,
2013-07-09 11:43:00,72.9,59.6,30.10,West,269,2.0,7.0,63,0.00,,---,0.00,823.00,VWS V14.01,2013-07-09 18:43:00,
2013-07-09 11:45:00,72.9,60.0,30.10,SW,223,4.0,7.0,64,0.00,,---,0.00,824.00,VWS V14.01,2013-07-09 18:45:00,
2013-07-09 11:48:00,72.9,59.1,30.10,WNW,284,2.0,6.0,62,0.00,,---,0.00,828.00,VWS V14.01,2013-07-09 18:48:00,
2013-07-09 11:50:00,73.0,60.5,30.10,West,264,2.0,6.0,65,0.00,,---,0.00,828.00,VWS V14.01,2013-07-09 18:50:00,
2013-07-09 11:53:00,72.9,59.1,30.10,West,262,3.0,7.0,62,0.00,,---,0.00,833.00,VWS V14.01,2013-07-09 18:53:00,
2013-07-09 11:55:00,72.9,60.0,30.10,SSW,213,3.0,7.0,64,0.00,,---,0.00,833.00,VWS V14.01,2013-07-09 18:55:00,
2013-07-09 11:58:00,73.3,60.0,30.10,West,275,3.0,5.0,63,0.00,,---,0.00,838.00,VWS V14.01,2013-07-09 18:58:00,
2013-07-09 12:00:00,73.4,60.0,30.10,WSW,248,6.0,7.0,63,0.00,,---,0.00,838.00,VWS V14.01,2013-07-09 19:00:00,
2013-07-09 12:03:00,73.4,60.0,30.09,SW,217,7.0,8.0,63,0.00,,---,0.00,844.00,VWS V14.01,2013-07-09 19:03:00,
2013-07-09 12:05:00,73.2,59.4,30.09,SW,224,3.0,8.0,62,0.00,,---,0.00,846.00,VWS V14.01,2013-07-09 19:05:00,
2013-07-09 12:08:00,73.6,59.3,30.10,NW,313,3.0,6.0,61,0.00,,---,0.00,851.00,VWS V14.01,2013-07-09 19:08:00,
2013-07-09 12:10:00,73.6,59.3,30.10,West,271,5.0,6.0,61,0.00,,---,0.00,851.00,VWS V14.01,2013-07-09 19:10:00,
2013-07-09 12:13:00,73.6,60.2,30.09,SW,235,6.0,9.0,63,0.00,,---,0.00,854.00,VWS V14.01,2013-07-09 19:13:00,
2013-07-09 12:15:00,73.8,61.3,30.09,WSW,240,5.0,9.0,65,0.00,,---,0.00,856.00,VWS V14.01,2013-07-09 19:15:00,
2013-07-09 12:18:00,73.8,61.7,30.10,West,273,3.0,6.0,66,0.00,,---,0.00,860.00,VWS V14.01,2013-07-09 19:18:00,
2013-07-09 12:20:00,73.9,59.6,30.09,WNW,284,2.0,6.0,61,0.00,,---,0.00,861.00,VWS V14.01,2013-07-09 19:20:00,
2013-07-09 12:23:00,74.2,60.4,30.09,SW,223,5.0,7.0,62,0.00,,---,0.00,861.00,VWS V14.01,2013-07-09 19:23:00,
2013-07-09 12:25:00,74.3,60.0,30.09,SSW,198,5.0,7.0,61,0.00,,---,0.00,865.00,VWS V14.01,2013-07-09 19:25:00,
2013-07-09 12:28:00,74.2,59.4,30.09,SSW,206,7.0,10.0,60,0.00,,---,0.00,865.00,VWS V14.01,2013-07-09 19:28:00,
2013-07-09 12:30:00,74.2,60.8,30.09,SW,219,6.0,10.0,63,0.00,,---,0.00,867.00,VWS V14.01,2013-07-09 19:30:00,
2013-07-09 12:33:00,74.4,60.5,30.09,West,269,5.0,6.0,62,0.00,,---,0.00,868.00,VWS V14.01,2013-07-09 19:33:00,
2013-07-09 12:35:00,74.6,62.1,30.09,SW,229,4.0,6.0,65,0.00,,---,0.00,870.00,VWS V14.01,2013-07-09 19:35:00,
2013-07-09 12:38:00,74.8,60.0,30.09,WSW,240,4.0,8.0,60,0.00,,---,0.00,874.00,VWS V14.01,2013-07-09 19:38:00,
2013-07-09 12:40:00,74.7,59.9,30.09,SSW,194,3.0,8.0,60,0.00,,---,0.00,875.00,VWS V14.01,2013-07-09 19:40:00,
2013-07-09 12:43:00,75.1,63.0,30.08,SW,221,4.0,7.0,66,0.00,,---,0.00,874.00,VWS V14.01,2013-07-09 19:43:00,
2013-07-09 12:45:00,75.4,61.0,30.09,WSW,251,4.0,7.0,61,0.00,,---,0.00,874.00,VWS V14.01,2013-07-09 19:45:00,
2013-07-09 12:48:00,76.0,61.6,30.08,WNW,284,3.0,8.0,61,0.00,,---,0.00,877.00,VWS V14.01,2013-07-09 19:48:00,
2013-07-09 12:50:00,76.1,60.3,30.08,NW,308,3.0,8.0,58,0.00,,---,0.00,875.00,VWS V14.01,2013-07-09 19:50:00,
2013-07-09 12:53:00,76.5,62.1,30.08,WSW,254,5.0,5.0,61,0.00,,---,0.00,879.00,VWS V14.01,2013-07-09 19:53:00,
2013-07-09 12:55:00,76.5,61.6,30.08,West,268,7.0,7.0,60,0.00,,---,0.00,879.00,VWS V14.01,2013-07-09 19:55:00,
2013-07-09 12:58:00,76.7,61.8,30.08,NW,320,5.0,7.0,60,0.00,,---,0.00,877.00,VWS V14.01,2013-07-09 19:58:00,
2013-07-09 13:00:00,76.7,60.3,30.08,NNW,340,4.0,7.0,57,0.00,,---,0.00,879.00,VWS V14.01,2013-07-09 20:00:00,
2013-07-09 13:03:00,76.7,59.8,30.08,West,277,3.0,6.0,56,0.00,,---,0.00,879.00,VWS V14.01,2013-07-09 20:03:00,
2013-07-09 13:05:00,76.9,62.9,30.08,West,281,5.0,6.0,62,0.00,,---,0.00,879.00,VWS V14.01,2013-07-09 20:05:00,
2013-07-09 13:08:00,77.2,62.2,30.08,NNW,327,4.0,7.0,60,0.00,,---,0.00,879.00,VWS V14.01,2013-07-09 20:08:00,
2013-07-09 13:10:00,77.3,60.9,30.08,NW,321,6.0,7.0,57,0.00,,---,0.00,879.00,VWS V14.01,2013-07-09 20:10:00,
2013-07-09 13:13:00,77.6,61.2,30.08,WNW,300,5.0,7.0,57,0.00,,---,0.00,881.00,VWS V14.01,2013-07-09 20:13:00,
2013-07-09 13:15:00,77.6,62.2,30.08,NW,323,4.0,8.0,59,0.00,,---,0.00,881.00,VWS V14.01,2013-07-09 20:15:00,
2013-07-09 13:18:00,77.6,62.2,30.08,NNW,328,2.0,8.0,59,0.00,,---,0.00,882.00,VWS V14.01,2013-07-09 20:18:00,
2013-07-09 13:20:00,77.7,60.8,30.08,NW,316,4.0,8.0,56,0.00,,---,0.00,881.00,VWS V14.01,2013-07-09 20:20:00,
2013-07-09 13:23:00,77.8,60.4,30.07,WNW,290,3.0,9.0,55,0.00,,---,0.00,881.00,VWS V14.01,2013-07-09 20:23:00,
2013-07-09 13:25:00,77.6,61.7,30.08,SW,227,4.0,9.0,58,0.00,,---,0.00,882.00,VWS V14.01,2013-07-09 20:25:00,
2013-07-09 13:28:00,77.6,60.7,30.08,WSW,250,11.0,11.0,56,0.00,,---,0.00,881.00,VWS V14.01,2013-07-09 20:28:00,
2013-07-09 13:30:00,77.5,60.6,30.08,West,264,4.0,11.0,56,0.00,,---,0.00,881.00,VWS V14.01,2013-07-09 20:30:00,
2013-07-09 13:33:00,77.8,61.4,30.08,NW,321,2.0,9.0,57,0.00,,---,0.00,877.00,VWS V14.01,2013-07-09 20:33:00,
2013-07-09 13:35:00,77.8,60.9,30.08,NW,313,5.0,9.0,56,0.00,,---,0.00,879.00,VWS V14.01,2013-07-09 20:35:00,
2013-07-09 13:38:00,78.1,61.6,30.08,NW,317,7.0,7.0,57,0.00,,---,0.00,877.00,VWS V14.01,2013-07-09 20:38:00,
2013-07-09 13:40:00,78.2,60.2,30.08,North,351,7.0,10.0,54,0.00,,---,0.00,877.00,VWS V14.01,2013-07-09 20:40:00,
2013-07-09 13:43:00,78.5,61.0,30.07,NW,314,5.0,9.0,55,0.00,,---,0.00,875.00,VWS V14.01,2013-07-09 20:43:00,
2013-07-09 13:45:00,78.5,61.5,30.07,WNW,300,6.0,10.0,56,0.00,,---,0.00,875.00,VWS V14.01,2013-07-09 20:45:00,
2013-07-09 13:48:00,78.5,60.5,30.07,North,360,1.0,7.0,54,0.00,,---,0.00,874.00,VWS V14.01,2013-07-09 20:48:00,
2013-07-09 13:50:00,78.6,61.1,30.07,NNW,335,5.0,7.0,55,0.00,,---,0.00,874.00,VWS V14.01,2013-07-09 20:50:00,
2013-07-09 13:53:00,78.9,61.4,30.07,NW,305,2.0,8.0,55,0.00,,---,0.00,874.00,VWS V14.01,2013-07-09 20:53:00,
2013-07-09 13:55:00,79.0,62.0,30.07,WNW,297,3.0,8.0,56,0.00,,---,0.00,872.00,VWS V14.01,2013-07-09 20:55:00,
2013-07-09 13:58:00,79.0,61.5,30.07,WNW,283,1.0,6.0,55,0.00,,---,0.00,870.00,VWS V14.01,2013-07-09 20:58:00,
2013-07-09 14:00:00,79.0,61.5,30.07,West,265,4.0,6.0,55,0.00,,---,0.00,872.00,VWS V14.01,2013-07-09 21:00:00,
2013-07-09 14:03:00,78.9,60.9,30.07,WSW,242,4.0,8.0,54,0.00,,---,0.00,870.00,VWS V14.01,2013-07-09 21:03:00,
2013-07-09 14:05:00,78.8,60.8,30.07,WNW,290,2.0,8.0,54,0.00,,---,0.00,870.00,VWS V14.01,2013-07-09 21:05:00,
2013-07-09 14:08:00,79.3,59.6,30.07,NNW,344,4.0,9.0,51,0.00,,---,0.00,865.00,VWS V14.01,2013-07-09 21:08:00,
2013-07-09 14:10:00,79.4,60.8,30.07,WSW,253,8.0,9.0,53,0.00,,---,0.00,867.00,VWS V14.01,2013-07-09 21:10:00,
2013-07-09 14:13:00,79.1,59.4,30.06,WNW,290,5.0,8.0,51,0.00,,---,0.00,867.00,VWS V14.01,2013-07-09 21:13:00,
2013-07-09 14:15:00,79.2,59.0,30.07,NW,307,4.0,8.0,50,0.00,,---,0.00,865.00,VWS V14.01,2013-07-09 21:15:00,
2013-07-09 14:18:00,79.4,58.6,30.07,NNW,329,4.0,10.0,49,0.00,,---,0.00,861.00,VWS V14.01,2013-07-09 21:18:00,
2013-07-09 14:20:00,79.4,59.2,30.07,NNW,344,6.0,10.0,50,0.00,,---,0.00,860.00,VWS V14.01,2013-07-09 21:20:00,
2013-07-09 14:23:00,79.7,58.9,30.07,WNW,288,4.0,6.0,49,0.00,,---,0.00,856.00,VWS V14.01,2013-07-09 21:23:00,
2013-07-09 14:25:00,79.8,61.7,30.06,WNW,290,4.0,9.0,54,0.00,,---,0.00,858.00,VWS V14.01,2013-07-09 21:25:00,
2013-07-09 14:28:00,79.7,58.9,30.06,NW,320,5.0,8.0,49,0.00,,---,0.00,856.00,VWS V14.01,2013-07-09 21:28:00,
2013-07-09 14:30:00,79.8,59.5,30.06,West,269,4.0,8.0,50,0.00,,---,0.00,853.00,VWS V14.01,2013-07-09 21:30:00,
2013-07-09 14:33:00,80.0,57.4,30.06,North,360,9.0,12.0,46,0.00,,---,0.00,851.00,VWS V14.01,2013-07-09 21:33:00,
2013-07-09 14:35:00,79.8,57.8,30.06,NNW,332,6.0,12.0,47,0.00,,---,0.00,851.00,VWS V14.01,2013-07-09 21:35:00,
2013-07-09 14:38:00,79.6,55.8,30.06,WNW,295,6.0,11.0,44,0.00,,---,0.00,846.00,VWS V14.01,2013-07-09 21:38:00,
2013-07-09 14:40:00,79.6,57.6,30.06,NW,310,4.0,11.0,47,0.00,,---,0.00,846.00,VWS V14.01,2013-07-09 21:40:00,
2013-07-09 14:43:00,79.6,56.4,30.06,NW,311,6.0,9.0,45,0.00,,---,0.00,840.00,VWS V14.01,2013-07-09 21:43:00,
2013-07-09 14:45:00,79.6,56.4,30.06,West,277,4.0,9.0,45,0.00,,---,0.00,838.00,VWS V14.01,2013-07-09 21:45:00,
2013-07-09 14:48:00,79.8,59.0,30.06,North,355,5.0,8.0,49,0.00,,---,0.00,835.00,VWS V14.01,2013-07-09 21:48:00,
2013-07-09 14:50:00,79.8,58.4,30.06,NW,326,4.0,8.0,48,0.00,,---,0.00,833.00,VWS V14.01,2013-07-09 21:50:00,
2013-07-09 14:53:00,80.0,58.0,30.06,NW,317,6.0,9.0,47,0.00,,---,0.00,819.00,VWS V14.01,2013-07-09 21:53:00,
2013-07-09 14:55:00,80.0,58.6,30.06,West,279,6.0,9.0,48,0.00,,---,0.00,819.00,VWS V14.01,2013-07-09 21:55:00,
2013-07-09 14:58:00,79.8,58.4,30.06,NNW,329,6.0,9.0,48,0.00,,---,0.00,823.00,VWS V14.01,2013-07-09 21:58:00,
2013-07-09 15:00:00,79.9,58.5,30.06,NNW,329,8.0,9.0,48,0.00,,---,0.00,821.00,VWS V14.01,2013-07-09 22:00:00,
2013-07-09 15:03:00,79.8,57.2,30.06,NNW,338,4.0,9.0,46,0.00,,---,0.00,816.00,VWS V14.01,2013-07-09 22:03:00,
2013-07-09 15:05:00,79.8,59.0,30.06,NNW,342,5.0,9.0,49,0.00,,---,0.00,814.00,VWS V14.01,2013-07-09 22:05:00,
2013-07-09 15:08:00,79.8,57.8,30.06,NNW,334,6.0,8.0,47,0.00,,---,0.00,809.00,VWS V14.01,2013-07-09 22:08:00,
2013-07-09 15:10:00,79.9,58.5,30.06,NW,320,5.0,9.0,48,0.00,,---,0.00,805.00,VWS V14.01,2013-07-09 22:10:00,
2013-07-09 15:13:00,80.2,58.8,30.06,NW,315,4.0,11.0,48,0.00,,---,0.00,802.00,VWS V14.01,2013-07-09 22:13:00,
2013-07-09 15:15:00,80.2,58.2,30.06,WNW,295,2.0,11.0,47,0.00,,---,0.00,802.00,VWS V14.01,2013-07-09 22:15:00,
2013-07-09 15:18:00,80.1,57.5,30.06,NW,316,11.0,11.0,46,0.00,,---,0.00,795.00,VWS V14.01,2013-07-09 22:18:00,
2013-07-09 15:20:00,80.0,58.6,30.06,NNW,338,7.0,11.0,48,0.00,,---,0.00,795.00,VWS V14.01,2013-07-09 22:20:00,
2013-07-09 15:23:00,79.7,58.9,30.05,NNW,329,6.0,10.0,49,0.00,,---,0.00,788.00,VWS V14.01,2013-07-09 22:23:00,
2013-07-09 15:25:00,79.7,57.7,30.05,WNW,292,4.0,11.0,47,0.00,,---,0.00,788.00,VWS V14.01,2013-07-09 22:25:00,
2013-07-09 15:28:00,79.8,59.0,30.05,WSW,250,5.0,8.0,49,0.00,,---,0.00,780.00,VWS V14.01,2013-07-09 22:28:00,
2013-07-09 15:30:00,79.9,57.9,30.05,WNW,286,6.0,8.0,47,0.00,,---,0.00,777.00,VWS V14.01,2013-07-09 22:30:00,
2013-07-09 15:33:00,79.9,57.9,30.05,WNW,284,2.0,7.0,47,0.00,,---,0.00,770.00,VWS V14.01,2013-07-09 22:33:00,
2013-07-09 15:35:00,79.9,57.9,30.05,WNW,297,4.0,7.0,47,0.00,,---,0.00,768.00,VWS V14.01,2013-07-09 22:35:00,
2013-07-09 15:38:00,80.3,59.4,30.05,WNW,294,5.0,7.0,49,0.00,,---,0.00,763.00,VWS V14.01,2013-07-09 22:38:00,
2013-07-09 15:40:00,80.3,58.8,30.05,WNW,302,7.0,7.0,48,0.00,,---,0.00,763.00,VWS V14.01,2013-07-09 22:40:00,
2013-07-09 15:43:00,80.1,59.2,30.05,WNW,287,5.0,7.0,49,0.00,,---,0.00,756.00,VWS V14.01,2013-07-09 22:43:00,
2013-07-09 15:45:00,80.1,59.2,30.05,WNW,303,5.0,7.0,49,0.00,,---,0.00,752.00,VWS V14.01,2013-07-09 22:45:00,
2013-07-09 15:48:00,80.2,59.3,30.05,WNW,294,1.0,6.0,49,0.00,,---,0.00,747.00,VWS V14.01,2013-07-09 22:48:00,
2013-07-09 15:50:00,80.2,59.9,30.05,WNW,302,4.0,6.0,50,0.00,,---,0.00,747.00,VWS V14.01,2013-07-09 22:50:00,
2013-07-09 15:53:00,80.2,59.9,30.05,WSW,255,4.0,8.0,50,0.00,,---,0.00,742.00,VWS V14.01,2013-07-09 22:53:00,
2013-07-09 15:55:00,80.3,61.1,30.05,NNW,332,5.0,8.0,52,0.00,,---,0.00,740.00,VWS V14.01,2013-07-09 22:55:00,
2013-07-09 15:58:00,80.5,60.7,30.05,West,278,2.0,8.0,51,0.00,,---,0.00,733.00,VWS V14.01,2013-07-09 22:58:00,
2013-07-09 16:00:00,80.4,59.5,30.05,NW,317,5.0,8.0,49,0.00,,---,0.00,729.00,VWS V14.01,2013-07-09 23:00:00,
2013-07-09 16:03:00,80.4,61.2,30.05,NW,324,4.0,10.0,52,0.00,,---,0.00,719.00,VWS V14.01,2013-07-09 23:03:00,
2013-07-09 16:05:00,80.6,60.3,30.05,WNW,286,2.0,10.0,50,0.00,,---,0.00,717.00,VWS V14.01,2013-07-09 23:05:00,
2013-07-09 16:08:00,80.8,61.0,30.04,WNW,284,4.0,7.0,51,0.00,,---,0.00,712.00,VWS V14.01,2013-07-09 23:08:00,
2013-07-09 16:10:00,80.8,60.4,30.04,WNW,286,8.0,8.0,50,0.00,,---,0.00,712.00,VWS V14.01,2013-07-09 23:10:00,
2013-07-09 16:13:00,80.9,58.8,30.04,NW,319,3.0,9.0,47,0.00,,---,0.00,700.00,VWS V14.01,2013-07-09 23:13:00,
2013-07-09 16:15:00,80.8,59.3,30.04,NW,322,4.0,9.0,48,0.00,,---,0.00,696.00,VWS V14.01,2013-07-09 23:15:00,
2013-07-09 16:18:00,81.3,60.3,30.04,NW,306,4.0,6.0,49,0.00,,---,0.00,689.00,VWS V14.01,2013-07-09 23:18:00,
2013-07-09 16:20:00,81.4,58.0,30.04,WNW,294,3.0,7.0,45,0.00,,---,0.00,686.00,VWS V14.01,2013-07-09 23:20:00,
2013-07-09 16:23:00,81.2,59.1,30.04,NW,313,1.0,9.0,47,0.00,,---,0.00,680.00,VWS V14.01,2013-07-09 23:23:00,
2013-07-09 16:25:00,81.2,60.2,30.04,NNW,327,4.0,9.0,49,0.00,,---,0.00,636.00,VWS V14.01,2013-07-09 23:25:00,
2013-07-09 16:28:00,81.2,59.7,30.04,WNW,294,4.0,8.0,48,0.00,,---,0.00,666.00,VWS V14.01,2013-07-09 23:28:00,
2013-07-09 16:30:00,81.2,61.4,30.04,North,9,6.0,8.0,51,0.00,,---,0.00,666.00,VWS V14.01,2013-07-09 23:30:00,
2013-07-09 16:33:00,81.1,60.7,30.04,NNW,341,3.0,9.0,50,0.00,,---,0.00,657.00,VWS V14.01,2013-07-09 23:33:00,
2013-07-09 16:35:00,81.2,59.7,30.04,WNW,288,1.0,9.0,48,0.00,,---,0.00,656.00,VWS V14.01,2013-07-09 23:35:00,
2013-07-09 16:38:00,81.2,60.8,30.04,NNW,335,3.0,6.0,50,0.00,,---,0.00,645.00,VWS V14.01,2013-07-09 23:38:00,
2013-07-09 16:40:00,81.3,60.9,30.04,West,275,5.0,8.0,50,0.00,,---,0.00,643.00,VWS V14.01,2013-07-09 23:40:00,
2013-07-09 16:43:00,81.1,60.2,30.03,NW,313,5.0,8.0,49,0.00,,---,0.00,633.00,VWS V14.01,2013-07-09 23:43:00,
2013-07-09 16:45:00,81.1,60.7,30.03,North,355,1.0,8.0,50,0.00,,---,0.00,631.00,VWS V14.01,2013-07-09 23:45:00,
2013-07-09 16:48:00,81.2,60.2,30.03,NW,326,6.0,8.0,49,0.00,,---,0.00,621.00,VWS V14.01,2013-07-09 23:48:00,
2013-07-09 16:50:00,81.2,60.2,30.03,NNW,327,8.0,8.0,49,0.00,,---,0.00,619.00,VWS V14.01,2013-07-09 23:50:00,
2013-07-09 16:53:00,80.9,61.6,30.03,WNW,300,3.0,9.0,52,0.00,,---,0.00,608.00,VWS V14.01,2013-07-09 23:53:00,
2013-07-09 16:55:00,81.1,61.8,30.03,NW,306,4.0,9.0,52,0.00,,---,0.00,606.00,VWS V14.01,2013-07-09 23:55:00,
2013-07-09 16:58:00,81.0,61.2,30.03,NW,323,7.0,9.0,51,0.00,,---,0.00,599.00,VWS V14.01,2013-07-09 23:58:00,
2013-07-09 17:00:00,81.0,60.1,30.03,NNW,335,6.0,9.0,49,0.00,,---,0.00,596.00,VWS V14.01,2013-07-10 00:00:00,
2013-07-09 17:03:00,80.8,59.9,30.03,North,5,4.0,9.0,49,0.00,,---,0.00,587.00,VWS V14.01,2013-07-10 00:03:00,
2013-07-09 17:05:00,80.8,60.4,30.03,NNW,333,8.0,9.0,50,0.00,,---,0.00,585.00,VWS V14.01,2013-07-10 00:05:00,
2013-07-09 17:08:00,81.2,62.5,30.03,NNW,329,4.0,8.0,53,0.00,,---,0.00,573.00,VWS V14.01,2013-07-10 00:08:00,
2013-07-09 17:10:00,81.3,60.9,30.03,NNW,330,3.0,8.0,50,0.00,,---,0.00,575.00,VWS V14.01,2013-07-10 00:10:00,
2013-07-09 17:13:00,81.3,60.3,30.03,NW,313,4.0,9.0,49,0.00,,---,0.00,566.00,VWS V14.01,2013-07-10 00:13:00,
2013-07-09 17:15:00,81.3,60.3,30.03,NW,323,5.0,9.0,49,0.00,,---,0.00,559.00,VWS V14.01,2013-07-10 00:15:00,
2013-07-09 17:18:00,81.0,61.2,30.03,NNW,343,4.0,9.0,51,0.00,,---,0.00,547.00,VWS V14.01,2013-07-10 00:18:00,
2013-07-09 17:20:00,80.9,60.5,30.03,NW,306,3.0,9.0,50,0.00,,---,0.00,545.00,VWS V14.01,2013-07-10 00:20:00,
2013-07-09 17:23:00,80.7,59.8,30.03,WNW,299,3.0,7.0,49,0.00,,---,0.00,534.00,VWS V14.01,2013-07-10 00:23:00,
2013-07-09 17:25:00,80.7,60.3,30.03,NNW,327,4.0,7.0,50,0.00,,---,0.00,531.00,VWS V14.01,2013-07-10 00:25:00,
2013-07-09 17:28:00,80.5,59.6,30.02,NW,314,6.0,10.0,49,0.00,,---,0.00,503.00,VWS V14.01,2013-07-10 00:28:00,
2013-07-09 17:30:00,80.5,60.2,30.02,NW,318,7.0,10.0,50,0.00,,---,0.00,374.00,VWS V14.01,2013-07-10 00:30:00,
2013-07-09 17:33:00,80.3,59.4,30.03,NNE,13,5.0,11.0,49,0.00,,---,0.00,510.00,VWS V14.01,2013-07-10 00:33:00,
2013-07-09 17:35:00,80.3,60.0,30.03,NW,316,7.0,11.0,50,0.00,,---,0.00,508.00,VWS V14.01,2013-07-10 00:35:00,
2013-07-09 17:38:00,80.2,59.9,30.02,NNW,334,7.0,12.0,50,0.00,,---,0.00,497.00,VWS V14.01,2013-07-10 00:38:00,
2013-07-09 17:40:00,80.1,60.4,30.02,NW,321,5.0,12.0,51,0.00,,---,0.00,494.00,VWS V14.01,2013-07-10 00:40:00,
2013-07-09 17:43:00,80.1,59.2,30.02,NW,322,5.0,9.0,49,0.00,,---,0.00,483.00,VWS V14.01,2013-07-10 00:43:00,
2013-07-09 17:45:00,80.1,59.2,30.02,WNW,282,5.0,9.0,49,0.00,,---,0.00,482.00,VWS V14.01,2013-07-10 00:45:00,
2013-07-09 17:48:00,80.4,60.1,30.02,NNW,331,3.0,8.0,50,0.00,,---,0.00,471.00,VWS V14.01,2013-07-10 00:48:00,
2013-07-09 17:50:00,80.4,60.1,30.02,NW,313,4.0,8.0,50,0.00,,---,0.00,469.00,VWS V14.01,2013-07-10 00:50:00,
2013-07-09 17:53:00,80.7,62.0,30.02,NW,311,2.0,6.0,53,0.00,,---,0.00,457.00,VWS V14.01,2013-07-10 00:53:00,
2013-07-09 17:55:00,80.7,60.3,30.02,NW,323,2.0,6.0,50,0.00,,---,0.00,455.00,VWS V14.01,2013-07-10 00:55:00,
2013-07-09 17:58:00,80.7,59.8,30.02,NNW,336,6.0,9.0,49,0.00,,---,0.00,448.00,VWS V14.01,2013-07-10 00:58:00,
2013-07-09 18:00:00,80.7,60.9,30.02,West,280,3.0,9.0,51,0.00,,---,0.00,441.00,VWS V14.01,2013-07-10 01:00:00,
2013-07-09 18:03:00,80.7,59.2,30.02,NNW,331,5.0,8.0,48,0.00,,---,0.00,431.00,VWS V14.01,2013-07-10 01:03:00,
2013-07-09 18:05:00,80.7,59.8,30.02,WNW,298,4.0,8.0,49,0.00,,---,0.00,427.00,VWS V14.01,2013-07-10 01:05:00,
2013-07-09 18:08:00,80.8,60.4,30.02,WNW,291,4.0,6.0,50,0.00,,---,0.00,418.00,VWS V14.01,2013-07-10 01:08:00,
2013-07-09 18:10:00,80.8,59.3,30.02,NW,311,4.0,8.0,48,0.00,,---,0.00,424.00,VWS V14.01,2013-07-10 01:10:00,
2013-07-09 18:13:00,80.5,60.2,30.02,NW,321,3.0,9.0,50,0.00,,---,0.00,404.00,VWS V14.01,2013-07-10 01:13:00,
2013-07-09 18:15:00,80.4,58.9,30.02,NW,312,4.0,9.0,48,0.00,,---,0.00,403.00,VWS V14.01,2013-07-10 01:15:00,
2013-07-09 18:18:00,80.0,58.6,30.02,NW,313,5.0,9.0,48,0.00,,---,0.00,392.00,VWS V14.01,2013-07-10 01:18:00,
2013-07-09 18:20:00,80.0,58.6,30.02,NW,312,4.0,9.0,48,0.00,,---,0.00,388.00,VWS V14.01,2013-07-10 01:20:00,
2013-07-09 18:23:00,79.8,58.4,30.01,WNW,298,2.0,9.0,48,0.00,,---,0.00,376.00,VWS V14.01,2013-07-10 01:23:00,
2013-07-09 18:25:00,79.7,58.3,30.01,NNW,332,3.0,9.0,48,0.00,,---,0.00,374.00,VWS V14.01,2013-07-10 01:25:00,
2013-07-09 18:28:00,79.6,58.8,30.01,West,281,7.0,11.0,49,0.00,,---,0.00,362.00,VWS V14.01,2013-07-10 01:28:00,
2013-07-09 18:30:00,79.6,58.8,30.01,WNW,290,7.0,11.0,49,0.00,,---,0.00,359.00,VWS V14.01,2013-07-10 01:30:00,
2013-07-09 18:33:00,79.4,58.6,30.01,NNW,341,5.0,8.0,49,0.00,,---,0.00,348.00,VWS V14.01,2013-07-10 01:33:00,
2013-07-09 18:35:00,79.5,58.7,30.01,WNW,292,8.0,9.0,49,0.00,,---,0.00,346.00,VWS V14.01,2013-07-10 01:35:00,
2013-07-09 18:38:00,79.5,58.7,30.01,NW,319,6.0,9.0,49,0.00,,---,0.00,336.00,VWS V14.01,2013-07-10 01:38:00,
2013-07-09 18:40:00,79.5,58.7,30.01,NW,317,6.0,9.0,49,0.00,,---,0.00,334.00,VWS V14.01,2013-07-10 01:40:00,
2013-07-09 18:43:00,79.6,59.3,30.01,NW,321,7.0,9.0,50,0.00,,---,0.00,322.00,VWS V14.01,2013-07-10 01:43:00,
2013-07-09 18:45:00,79.6,59.3,30.01,NW,323,5.0,9.0,50,0.00,,---,0.00,322.00,VWS V14.01,2013-07-10 01:45:00,
2013-07-09 18:48:00,79.6,59.9,30.01,NW,323,3.0,7.0,51,0.00,,---,0.00,309.00,VWS V14.01,2013-07-10 01:48:00,
2013-07-09 18:50:00,79.7,59.4,30.01,NNW,331,4.0,7.0,50,0.00,,---,0.00,304.00,VWS V14.01,2013-07-10 01:50:00,
2013-07-09 18:53:00,79.9,58.5,30.01,WNW,287,5.0,6.0,48,0.00,,---,0.00,294.00,VWS V14.01,2013-07-10 01:53:00,
2013-07-09 18:55:00,79.8,59.0,30.01,North,360,4.0,6.0,49,0.00,,---,0.00,292.00,VWS V14.01,2013-07-10 01:55:00,
2013-07-09 18:58:00,79.7,58.9,30.01,WNW,298,4.0,6.0,49,0.00,,---,0.00,279.00,VWS V14.01,2013-07-10 01:58:00,
2013-07-09 19:00:00,79.6,58.2,30.01,NW,323,5.0,7.0,48,0.00,,---,0.00,278.00,VWS V14.01,2013-07-10 02:00:00,
2013-07-09 19:03:00,79.5,58.7,30.01,WNW,294,3.0,7.0,49,0.00,,---,0.00,265.00,VWS V14.01,2013-07-10 02:03:00,
2013-07-09 19:05:00,79.5,58.1,30.01,NNW,328,4.0,7.0,48,0.00,,---,0.00,264.00,VWS V14.01,2013-07-10 02:05:00,
2013-07-09 19:08:00,79.4,58.6,30.01,NW,326,5.0,9.0,49,0.00,,---,0.00,251.00,VWS V14.01,2013-07-10 02:08:00,
2013-07-09 19:10:00,79.4,58.0,30.01,NNW,328,5.0,9.0,48,0.00,,---,0.00,250.00,VWS V14.01,2013-07-10 02:10:00,
2013-07-09 19:13:00,79.3,59.1,30.01,NNW,331,4.0,6.0,50,0.00,,---,0.00,237.00,VWS V14.01,2013-07-10 02:13:00,
2013-07-09 19:15:00,79.3,58.5,30.01,NNW,336,4.0,6.0,49,0.00,,---,0.00,232.00,VWS V14.01,2013-07-10 02:15:00,
2013-07-09 19:18:00,79.2,58.4,30.01,NW,323,8.0,9.0,49,0.00,,---,0.00,221.00,VWS V14.01,2013-07-10 02:18:00,
2013-07-09 19:20:00,79.2,57.8,30.01,NW,317,5.0,9.0,48,0.00,,---,0.00,220.00,VWS V14.01,2013-07-10 02:20:00,
2013-07-09 19:23:00,79.2,58.4,30.01,NNW,331,0.0,7.0,49,0.00,,---,0.00,206.00,VWS V14.01,2013-07-10 02:23:00,
2013-07-09 19:25:00,79.2,58.4,30.01,WNW,301,0.0,7.0,49,0.00,,---,0.00,202.00,VWS V14.01,2013-07-10 02:25:00,
2013-07-09 19:28:00,79.2,59.0,30.01,NW,320,2.0,6.0,50,0.00,,---,0.00,190.00,VWS V14.01,2013-07-10 02:28:00,
2013-07-09 19:30:00,79.2,59.0,30.01,NNW,334,3.0,6.0,50,0.00,,---,0.00,186.00,VWS V14.01,2013-07-10 02:30:00,
2013-07-09 19:33:00,79.1,59.4,30.01,North,355,2.0,4.0,51,0.00,,---,0.00,172.00,VWS V14.01,2013-07-10 02:33:00,
2013-07-09 19:35:00,79.1,59.4,30.01,North,355,0.0,4.0,51,0.00,,---,0.00,169.00,VWS V14.01,2013-07-10 02:35:00,
2013-07-09 19:38:00,79.0,58.8,30.01,North,9,4.0,4.0,50,0.00,,---,0.00,134.00,VWS V14.01,2013-07-10 02:38:00,
2013-07-09 19:40:00,79.0,57.7,30.01,North,9,0.0,4.0,48,0.00,,---,0.00,146.00,VWS V14.01,2013-07-10 02:40:00,
2013-07-09 19:43:00,78.9,57.0,30.01,NNW,338,2.0,6.0,47,0.00,,---,0.00,141.00,VWS V14.01,2013-07-10 02:43:00,
2013-07-09 19:45:00,78.8,56.9,30.01,NE,44,1.0,6.0,47,0.00,,---,0.00,137.00,VWS V14.01,2013-07-10 02:45:00,
2013-07-09 19:48:00,78.6,56.7,30.01,NNE,21,3.0,5.0,47,0.00,,---,0.00,127.00,VWS V14.01,2013-07-10 02:48:00,
2013-07-09 19:50:00,78.6,56.7,30.01,ENE,68,4.0,5.0,47,0.00,,---,0.00,125.00,VWS V14.01,2013-07-10 02:50:00,
2013-07-09 19:53:00,78.5,56.6,30.01,NW,323,4.0,5.0,47,0.00,,---,0.00,102.00,VWS V14.01,2013-07-10 02:53:00,
2013-07-09 19:55:00,78.5,56.6,30.01,NE,36,3.0,5.0,47,0.00,,---,0.00,102.00,VWS V14.01,2013-07-10 02:55:00,
2013-07-09 19:58:00,78.0,57.3,30.01,NE,42,1.0,7.0,49,0.00,,---,0.00,97.00,VWS V14.01,2013-07-10 02:58:00,
2013-07-09 20:00:00,77.9,57.2,30.01,NNE,20,3.0,7.0,49,0.00,,---,0.00,95.00,VWS V14.01,2013-07-10 03:00:00,
2013-07-09 20:03:00,77.4,57.3,30.01,North,9,1.0,5.0,50,0.00,,---,0.00,77.00,VWS V14.01,2013-07-10 03:03:00,
2013-07-09 20:05:00,77.3,57.2,30.01,North,5,6.0,6.0,50,0.00,,---,0.00,79.00,VWS V14.01,2013-07-10 03:05:00,
2013-07-09 20:08:00,76.7,57.2,30.01,NNW,327,3.0,6.0,51,0.00,,---,0.00,70.00,VWS V14.01,2013-07-10 03:08:00,
2013-07-09 20:10:00,76.6,57.1,30.01,NNE,14,3.0,6.0,51,0.00,,---,0.00,69.00,VWS V14.01,2013-07-10 03:10:00,
2013-07-09 20:13:00,76.0,56.0,30.01,North,9,2.0,7.0,50,0.00,,---,0.00,58.00,VWS V14.01,2013-07-10 03:13:00,
2013-07-09 20:15:00,75.9,56.5,30.01,NNE,15,3.0,7.0,51,0.00,,---,0.00,56.00,VWS V14.01,2013-07-10 03:15:00,
2013-07-09 20:18:00,75.4,55.5,30.01,North,5,2.0,5.0,50,0.00,,---,0.00,47.00,VWS V14.01,2013-07-10 03:18:00,
2013-07-09 20:20:00,75.3,55.4,30.01,North,5,1.0,5.0,50,0.00,,---,0.00,46.00,VWS V14.01,2013-07-10 03:20:00,
2013-07-09 20:23:00,74.9,55.0,30.01,NE,34,1.0,5.0,50,0.00,,---,0.00,39.00,VWS V14.01,2013-07-10 03:23:00,
2013-07-09 20:25:00,74.8,54.4,30.01,NE,53,4.0,5.0,49,0.00,,---,0.00,37.00,VWS V14.01,2013-07-10 03:25:00,
2013-07-09 20:28:00,74.6,53.6,30.01,NNE,19,3.0,7.0,48,0.00,,---,0.00,30.00,VWS V14.01,2013-07-10 03:28:00,
2013-07-09 20:30:00,74.6,53.6,30.01,NNE,29,1.0,7.0,48,0.00,,---,0.00,28.00,VWS V14.01,2013-07-10 03:30:00,
2013-07-09 20:33:00,74.3,54.5,30.01,NNE,23,1.0,3.0,50,0.00,,---,0.00,23.00,VWS V14.01,2013-07-10 03:33:00,
2013-07-09 20:35:00,74.2,54.4,30.01,NE,46,3.0,3.0,50,0.00,,---,0.00,21.00,VWS V14.01,2013-07-10 03:35:00,
2013-07-09 20:38:00,73.8,54.0,30.01,NE,35,0.0,4.0,50,0.00,,---,0.00,16.00,VWS V14.01,2013-07-10 03:38:00,
2013-07-09 20:40:00,73.7,53.9,30.01,NE,35,0.0,4.0,50,0.00,,---,0.00,16.00,VWS V14.01,2013-07-10 03:40:00,
2013-07-09 20:43:00,73.5,54.3,30.01,NE,36,2.0,2.0,51,0.00,,---,0.00,14.00,VWS V14.01,2013-07-10 03:43:00,
2013-07-09 20:45:00,73.4,53.7,30.01,NE,36,1.0,2.0,50,0.00,,---,0.00,12.00,VWS V14.01,2013-07-10 03:45:00,
2013-07-09 20:48:00,73.1,53.9,30.01,NE,35,2.0,2.0,51,0.00,,---,0.00,11.00,VWS V14.01,2013-07-10 03:48:00,
2013-07-09 20:50:00,73.1,54.5,30.01,NE,40,3.0,3.0,52,0.00,,---,0.00,11.00,VWS V14.01,2013-07-10 03:50:00,
2013-07-09 20:53:00,72.7,53.5,30.01,ENE,64,0.0,5.0,51,0.00,,---,0.00,9.00,VWS V14.01,2013-07-10 03:53:00,
2013-07-09 20:55:00,72.7,54.1,30.01,ENE,69,2.0,5.0,52,0.00,,---,0.00,9.00,VWS V14.01,2013-07-10 03:55:00,
2013-07-09 20:58:00,72.2,54.1,30.01,NE,38,1.0,3.0,53,0.00,,---,0.00,7.00,VWS V14.01,2013-07-10 03:58:00,
2013-07-09 21:00:00,72.1,54.0,30.01,ENE,70,2.0,3.0,53,0.00,,---,0.00,7.00,VWS V14.01,2013-07-10 04:00:00,
2013-07-09 21:01:00,71.9,53.9,30.01,ENE,57,1.0,2.0,53,0.00,,---,0.00,5.00,VWS V14.01,2013-07-10 04:01:00,
2013-07-09 21:05:00,71.4,53.4,30.02,East,88,2.0,5.0,53,0.00,,---,0.00,5.00,VWS V14.01,2013-07-10 04:05:00,
2013-07-09 21:06:00,71.2,53.2,30.01,ENE,71,3.0,7.0,53,0.00,,---,0.00,0.00,VWS V14.01,2013-07-10 04:06:00,
2013-07-09 21:10:00,70.9,52.9,30.01,ESE,112,3.0,7.0,53,0.00,,---,0.00,0.00,VWS V14.01,2013-07-10 04:10:00,
2013-07-09 21:11:00,70.8,52.8,30.02,ESE,113,3.0,6.0,53,0.00,,---,0.00,0.00,VWS V14.01,2013-07-10 04:11:00,
2013-07-09 21:15:00,70.4,53.0,30.02,NNE,26,1.0,6.0,54,0.00,,---,0.00,0.00,VWS V14.01,2013-07-10 04:15:00,
2013-07-09 21:16:00,70.2,52.8,30.02,ENE,67,1.0,2.0,54,0.00,,---,0.00,0.00,VWS V14.01,2013-07-10 04:16:00,
2013-07-09 21:20:00,69.7,52.3,30.02,East,86,0.0,3.0,54,0.00,,---,0.00,0.00,VWS V14.01,2013-07-10 04:20:00,
2013-07-09 21:21:00,69.6,52.7,30.02,East,97,2.0,3.0,55,0.00,,---,0.00,0.00,VWS V14.01,2013-07-10 04:21:00,
2013-07-09 21:25:00,69.2,52.4,30.02,ENE,61,0.0,3.0,55,0.00,,---,0.00,0.00,VWS V14.01,2013-07-10 04:25:00,
2013-07-09 21:26:00,69.1,52.8,30.02,ENE,61,1.0,1.0,56,0.00,,---,0.00,0.00,VWS V14.01,2013-07-10 04:26:00,
2013-07-09 21:30:00,68.8,52.5,30.02,NNE,33,0.0,4.0,56,0.00,,---,0.00,0.00,VWS V14.01,2013-07-10 04:30:00,
2013-07-09 21:31:00,68.7,52.9,30.02,NE,39,2.0,2.0,57,0.00,,---,0.00,0.00,VWS V14.01,2013-07-10 04:31:00,
2013-07-09 21:35:00,68.6,52.8,30.02,NE,44,0.0,4.0,57,0.00,,---,0.00,0.00,VWS V14.01,2013-07-10 04:35:00,
2013-07-09 21:36:00,68.5,52.7,30.02,NE,44,1.0,2.0,57,0.00,,---,0.00,0.00,VWS V14.01,2013-07-10 04:36:00,
2013-07-09 21:40:00,68.2,52.4,30.02,NE,44,0.0,4.0,57,0.00,,---,0.00,0.00,VWS V14.01,2013-07-10 04:40:00,
2013-07-09 21:41:00,68.1,52.3,30.02,East,83,1.0,2.0,57,0.00,,---,0.00,0.00,VWS V14.01,2013-07-10 04:41:00,
2013-07-09 21:45:00,68.0,52.2,30.02,ESE,105,0.0,2.0,57,0.00,,---,0.00,0.00,VWS V14.01,2013-07-10 04:45:00,
2013-07-09 21:46:00,67.9,52.6,30.02,ESE,105,0.0,0.0,58,0.00,,---,0.00,0.00,VWS V14.01,2013-07-10 04:46:00,
2013-07-09 21:50:00,67.8,52.5,30.02,South,187,0.0,3.0,58,0.00,,---,0.00,0.00,VWS V14.01,2013-07-10 04:50:00,
2013-07-09 21:51:00,67.6,52.8,30.03,South,187,0.0,0.0,59,0.00,,---,0.00,0.00,VWS V14.01,2013-07-10 04:51:00,
2013-07-09 21:55:00,67.5,52.2,30.03,South,187,0.0,0.0,58,0.00,,---,0.00,0.00,VWS V14.01,2013-07-10 04:55:00,
2013-07-09 21:56:00,67.4,52.6,30.03,South,187,0.0,1.0,59,0.00,,---,0.00,0.00,VWS V14.01,2013-07-10 04:56:00,
2013-07-09 22:00:00,67.2,52.4,30.03,ESE,118,0.0,1.0,59,0.00,,---,0.00,0.00,VWS V14.01,2013-07-10 05:00:00,
2013-07-09 22:01:00,67.3,52.5,30.03,ESE,117,0.0,0.0,59,0.00,,---,0.00,0.00,VWS V14.01,2013-07-10 05:01:00,
2013-07-09 22:05:00,67.3,52.5,30.03,ESE,118,0.0,0.0,59,0.00,,---,0.00,0.00,VWS V14.01,2013-07-10 05:05:00,
2013-07-09 22:06:00,67.2,51.9,30.03,ESE,117,0.0,2.0,58,0.00,,---,0.00,0.00,VWS V14.01,2013-07-10 05:06:00,
2013-07-09 22:10:00,67.3,52.0,30.03,East,86,3.0,3.0,58,0.00,,---,0.00,0.00,VWS V14.01,2013-07-10 05:10:00,
2013-07-09 22:11:00,67.2,52.4,30.03,East,100,1.0,3.0,59,0.00,,---,0.00,0.00,VWS V14.01,2013-07-10 05:11:00,
2013-07-09 22:15:00,67.2,52.4,30.03,East,92,1.0,5.0,59,0.00,,---,0.00,0.00,VWS V14.01,2013-07-10 05:15:00,
2013-07-09 22:16:00,67.2,52.4,30.03,East,100,1.0,1.0,59,0.00,,---,0.00,0.00,VWS V14.01,2013-07-10 05:16:00,
2013-07-09 22:20:00,67.1,52.3,30.03,ESE,114,0.0,3.0,59,0.00,,---,0.00,0.00,VWS V14.01,2013-07-10 05:20:00,
2013-07-09 22:21:00,67.1,52.8,30.03,ESE,114,0.0,1.0,60,0.00,,---,0.00,0.00,VWS V14.01,2013-07-10 05:21:00,
2013-07-09 22:25:00,66.8,52.5,30.03,East,86,0.0,1.0,60,0.00,,---,0.00,0.00,VWS V14.01,2013-07-10 05:25:00,
2013-07-09 22:26:00,66.7,52.4,30.03,East,86,0.0,1.0,60,0.00,,---,0.00,0.00,VWS V14.01,2013-07-10 05:26:00,
2013-07-09 22:30:00,66.6,52.8,30.03,East,86,0.0,1.0,61,0.00,,---,0.00,0.00,VWS V14.01,2013-07-10 05:30:00,
2013-07-09 22:31:00,66.4,52.6,30.03,East,86,0.0,0.0,61,0.00,,---,0.00,0.00,VWS V14.01,2013-07-10 05:31:00,
2013-07-09 22:35:00,66.2,52.4,30.03,East,86,0.0,1.0,61,0.00,,---,0.00,0.00,VWS V14.01,2013-07-10 05:35:00,
2013-07-09 22:36:00,66.1,52.7,30.03,East,86,0.0,0.0,62,0.00,,---,0.00,0.00,VWS V14.01,2013-07-10 05:36:00,
2013-07-09 22:40:00,65.9,52.5,30.03,East,86,0.0,0.0,62,0.00,,---,0.00,0.00,VWS V14.01,2013-07-10 05:40:00,
2013-07-09 22:41:00,65.8,52.4,30.03,East,86,0.0,0.0,62,0.00,,---,0.00,0.00,VWS V14.01,2013-07-10 05:41:00,
2013-07-09 22:45:00,65.7,52.8,30.03,East,86,0.0,0.0,63,0.00,,---,0.00,0.00,VWS V14.01,2013-07-10 05:45:00,
2013-07-09 22:46:00,65.6,52.7,30.03,East,86,0.0,0.0,63,0.00,,---,0.00,0.00,VWS V14.01,2013-07-10 05:46:00,
2013-07-09 22:50:00,65.4,52.9,30.03,East,86,0.0,0.0,64,0.00,,---,0.00,0.00,VWS V14.01,2013-07-10 05:50:00,
2013-07-09 22:51:00,65.4,52.9,30.03,East,86,0.0,0.0,64,0.00,,---,0.00,0.00,VWS V14.01,2013-07-10 05:51:00,
2013-07-09 22:55:00,65.3,52.8,30.03,East,86,0.0,0.0,64,0.00,,---,0.00,0.00,VWS V14.01,2013-07-10 05:55:00,
2013-07-09 22:56:00,65.2,52.7,30.03,East,86,0.0,0.0,64,0.00,,---,0.00,0.00,VWS V14.01,2013-07-10 05:56:00,
2013-07-09 23:00:00,65.2,52.7,30.03,East,86,0.0,0.0,64,0.00,,---,0.00,0.00,VWS V14.01,2013-07-10 06:00:00,
2013-07-09 23:01:00,65.1,52.6,30.03,East,86,0.0,0.0,64,0.00,,---,0.00,0.00,VWS V14.01,2013-07-10 06:01:00,
2013-07-09 23:05:00,65.1,52.6,30.03,East,86,0.0,0.0,64,0.00,,---,0.00,0.00,VWS V14.01,2013-07-10 06:05:00,
2013-07-09 23:06:00,65.0,52.5,30.03,East,86,0.0,0.0,64,0.00,,---,0.00,0.00,VWS V14.01,2013-07-10 06:06:00,
2013-07-09 23:10:00,64.8,52.8,30.03,East,86,0.0,0.0,65,0.00,,---,0.00,0.00,VWS V14.01,2013-07-10 06:10:00,
2013-07-09 23:11:00,64.7,52.7,30.03,East,86,0.0,0.0,65,0.00,,---,0.00,0.00,VWS V14.01,2013-07-10 06:11:00,
2013-07-09 23:15:00,64.5,52.9,30.03,East,86,0.0,0.0,66,0.00,,---,0.00,0.00,VWS V14.01,2013-07-10 06:15:00,
2013-07-09 23:16:00,64.4,52.8,30.03,East,86,0.0,0.0,66,0.00,,---,0.00,0.00,VWS V14.01,2013-07-10 06:16:00,
2013-07-09 23:20:00,64.3,52.7,30.03,East,86,0.0,0.0,66,0.00,,---,0.00,0.00,VWS V14.01,2013-07-10 06:20:00,
2013-07-09 23:21:00,64.3,52.7,30.03,East,86,0.0,0.0,66,0.00,,---,0.00,0.00,VWS V14.01,2013-07-10 06:21:00,
2013-07-09 23:25:00,64.3,52.7,30.03,East,86,0.0,0.0,66,0.00,,---,0.00,0.00,VWS V14.01,2013-07-10 06:25:00,
2013-07-09 23:26:00,64.3,53.1,30.03,East,86,0.0,0.0,67,0.00,,---,0.00,0.00,VWS V14.01,2013-07-10 06:26:00,
2013-07-09 23:30:00,64.2,53.0,30.03,East,86,0.0,0.0,67,0.00,,---,0.00,0.00,VWS V14.01,2013-07-10 06:30:00,
2013-07-09 23:31:00,64.1,52.9,30.04,East,86,0.0,0.0,67,0.00,,---,0.00,0.00,VWS V14.01,2013-07-10 06:31:00,
2013-07-09 23:35:00,64.0,53.2,30.04,East,86,0.0,1.0,68,0.00,,---,0.00,0.00,VWS V14.01,2013-07-10 06:35:00,
2013-07-09 23:36:00,63.9,53.1,30.04,East,86,0.0,0.0,68,0.00,,---,0.00,0.00,VWS V14.01,2013-07-10 06:36:00,
2013-07-09 23:40:00,63.8,53.0,30.04,East,86,0.0,0.0,68,0.00,,---,0.00,0.00,VWS V14.01,2013-07-10 06:40:00,
2013-07-09 23:41:00,63.8,53.0,30.04,East,86,0.0,0.0,68,0.00,,---,0.00,0.00,VWS V14.01,2013-07-10 06:41:00,
2013-07-09 23:45:00,63.8,53.0,30.04,East,86,0.0,0.0,68,0.00,,---,0.00,0.00,VWS V14.01,2013-07-10 06:45:00,
2013-07-09 23:46:00,63.8,53.0,30.04,East,86,0.0,0.0,68,0.00,,---,0.00,0.00,VWS V14.01,2013-07-10 06:46:00,
2013-07-09 23:50:00,63.7,53.0,30.04,East,86,0.0,0.0,68,0.00,,---,0.00,0.00,VWS V14.01,2013-07-10 06:50:00,
2013-07-09 23:51:00,63.6,52.9,30.04,East,86,0.0,0.0,68,0.00,,---,0.00,0.00,VWS V14.01,2013-07-10 06:51:00,
2013-07-09 23:55:00,63.6,53.3,30.04,East,86,0.0,0.0,69,0.00,,---,0.00,0.00,VWS V14.01,2013-07-10 06:55:00,
2013-07-09 23:56:00,63.5,53.2,30.04,East,86,0.0,0.0,69,0.00,,---,0.00,0.00,VWS V14.01,2013-07-10 06:56:00,